Wetterdaten: Donnerstag, 12.10.2023
Datum Zeit Temp. Aussen Temp. o. S. Temp +5cm Feuchte Auss Luftdruck Regen Sonnenschein Regendauer Solar Windben Empfang
12.10.2023 00:00 19,8 C 18,9 C 15,0 C 77 % 1012,2 hPa 0,0 l/m 0 min 0 min 0 W/m 9,7 km/h (2 Bft) 95,74 %
12.10.2023 00:02 19,8 C 18,9 C 15,0 C 77 % 1012,2 hPa 0,0 l/m 0 min 0 min 0 W/m 6,4 km/h (2 Bft) 91,67 %
12.10.2023 00:04 19,8 C 18,9 C 15,0 C 77 % 1012,1 hPa 0,0 l/m 0 min 0 min 0 W/m 19,3 km/h (3 Bft) 93,02 %
12.10.2023 00:07 19,8 C 18,9 C 15,0 C 77 % 1012,0 hPa 0,0 l/m 0 min 0 min 0 W/m 12,9 km/h (3 Bft) 97,56 %
12.10.2023 00:08 19,8 C 18,9 C 15,0 C 77 % 1012,0 hPa 0,0 l/m 0 min 0 min 0 W/m 12,9 km/h (3 Bft) 95,65 %
12.10.2023 00:12 19,8 C 18,9 C 15,0 C 77 % 1012,0 hPa 0,0 l/m 0 min 0 min 0 W/m 16,1 km/h (3 Bft) 97,44 %
12.10.2023 00:14 19,8 C 18,9 C 15,0 C 77 % 1012,0 hPa 0,0 l/m 0 min 0 min 0 W/m 6,4 km/h (2 Bft) 97,87 %
12.10.2023 00:16 19,8 C 18,9 C 15,0 C 77 % 1012,0 hPa 0,0 l/m 0 min 0 min 0 W/m 9,7 km/h (2 Bft) 97,87 %
12.10.2023 00:18 19,8 C 18,9 C 15,0 C 77 % 1012,1 hPa 0,0 l/m 0 min 0 min 0 W/m 12,9 km/h (3 Bft) 95,74 %
12.10.2023 00:20 19,8 C 18,9 C 15,0 C 76 % 1012,1 hPa 0,0 l/m 0 min 0 min 0 W/m 9,7 km/h (2 Bft) 97,87 %
12.10.2023 00:22 19,8 C 18,9 C 15,0 C 76 % 1012,1 hPa 0,0 l/m 0 min 0 min 0 W/m 12,9 km/h (3 Bft) 100,00 %
12.10.2023 00:24 19,9 C 18,9 C 15,0 C 76 % 1012,1 hPa 0,0 l/m 0 min 0 min 0 W/m 12,9 km/h (3 Bft) 100,00 %
12.10.2023 00:26 19,9 C 18,9 C 15,0 C 76 % 1012,1 hPa 0,0 l/m 0 min 0 min 0 W/m 19,3 km/h (3 Bft) 95,65 %
12.10.2023 00:28 19,9 C 18,9 C 15,0 C 76 % 1012,1 hPa 0,0 l/m 0 min 0 min 0 W/m 19,3 km/h (3 Bft) 100,00 %
12.10.2023 00:30 19,9 C 18,9 C 15,0 C 76 % 1012,1 hPa 0,0 l/m 0 min 0 min 0 W/m 3,2 km/h (1 Bft) 100,00 %
12.10.2023 00:32 19,9 C 18,9 C 15,0 C 76 % 1012,2 hPa 0,0 l/m 0 min 0 min 0 W/m 16,1 km/h (3 Bft) 100,00 %
12.10.2023 00:34 19,9 C 18,9 C 15,0 C 76 % 1012,2 hPa 0,0 l/m 0 min 0 min 0 W/m 16,1 km/h (3 Bft) 100,00 %
12.10.2023 00:36 19,9 C 18,9 C 15,0 C 76 % 1012,2 hPa 0,0 l/m 0 min 0 min 0 W/m 12,9 km/h (3 Bft) 97,87 %
12.10.2023 00:38 19,9 C 18,9 C 15,0 C 76 % 1012,1 hPa 0,0 l/m 0 min 0 min 0 W/m 9,7 km/h (2 Bft) 97,87 %
12.10.2023 00:40 19,9 C 18,9 C 14,4 C 76 % 1012,2 hPa 0,0 l/m 0 min 2 min 0 W/m 19,3 km/h (3 Bft) 97,87 %
12.10.2023 00:42 19,9 C 18,9 C 14,4 C 76 % 1012,2 hPa 0,0 l/m 0 min 0 min 0 W/m 19,3 km/h (3 Bft) 97,87 %
12.10.2023 00:44 19,9 C 18,9 C 14,4 C 77 % 1012,2 hPa 0,0 l/m 0 min 0 min 0 W/m 16,1 km/h (3 Bft) 95,65 %
12.10.2023 00:46 19,9 C 18,9 C 14,4 C 77 % 1012,2 hPa 0,0 l/m 0 min 0 min 0 W/m 6,4 km/h (2 Bft) 95,74 %
12.10.2023 00:48 19,9 C 18,9 C 15,0 C 77 % 1012,2 hPa 0,0 l/m 0 min 0 min 0 W/m 16,1 km/h (3 Bft) 97,87 %
12.10.2023 00:50 19,8 C 18,9 C 15,0 C 77 % 1012,2 hPa 0,0 l/m 0 min 0 min 0 W/m 6,4 km/h (2 Bft) 97,87 %
12.10.2023 00:52 19,8 C 18,9 C 15,0 C 76 % 1012,1 hPa 0,0 l/m 0 min 0 min 0 W/m 12,9 km/h (3 Bft) 97,87 %
12.10.2023 00:54 19,8 C 18,9 C 15,0 C 76 % 1012,1 hPa 0,0 l/m 0 min 0 min 0 W/m 16,1 km/h (3 Bft) 98,15 %
12.10.2023 00:56 19,8 C 18,9 C 15,0 C 76 % 1012,1 hPa 0,0 l/m 0 min 0 min 0 W/m 29,0 km/h (5 Bft) 98,00 %
12.10.2023 00:58 19,8 C 18,9 C 15,0 C 75 % 1012,2 hPa 0,0 l/m 0 min 0 min 0 W/m 25,7 km/h (4 Bft) 97,87 %
12.10.2023 01:00 19,9 C 18,9 C 15,0 C 75 % 1012,0 hPa 0,0 l/m 0 min 0 min 0 W/m 9,7 km/h (2 Bft) 95,74 %
12.10.2023 01:02 19,9 C 18,9 C 15,0 C 75 % 1012,1 hPa 0,0 l/m 0 min 0 min 0 W/m 12,9 km/h (3 Bft) 97,87 %
12.10.2023 01:04 19,8 C 18,9 C 15,0 C 75 % 1012,0 hPa 0,0 l/m 0 min 0 min 0 W/m 9,7 km/h (2 Bft) 97,87 %
12.10.2023 01:06 19,8 C 18,9 C 15,0 C 75 % 1012,1 hPa 0,0 l/m 0 min 0 min 0 W/m 9,7 km/h (2 Bft) 95,65 %
12.10.2023 01:08 19,8 C 18,9 C 15,0 C 75 % 1012,1 hPa 0,0 l/m 0 min 0 min 0 W/m 12,9 km/h (3 Bft) 97,87 %
12.10.2023 01:10 19,8 C 18,9 C 15,0 C 75 % 1012,1 hPa 0,0 l/m 0 min 0 min 0 W/m 16,1 km/h (3 Bft) 100,00 %
12.10.2023 01:12 19,8 C 18,9 C 15,0 C 75 % 1012,1 hPa 0,0 l/m 0 min 0 min 0 W/m 12,9 km/h (3 Bft) 100,00 %
12.10.2023 01:14 19,8 C 18,9 C 15,0 C 75 % 1012,1 hPa 0,0 l/m 0 min 0 min 0 W/m 19,3 km/h (3 Bft) 100,00 %
12.10.2023 01:16 19,8 C 18,9 C 15,0 C 75 % 1012,2 hPa 0,0 l/m 0 min 0 min 0 W/m 9,7 km/h (2 Bft) 100,00 %
12.10.2023 01:18 19,7 C 18,9 C 15,0 C 75 % 1012,3 hPa 0,0 l/m 0 min 0 min 0 W/m 6,4 km/h (2 Bft) 97,87 %
12.10.2023 01:20 19,7 C 18,9 C 15,0 C 75 % 1012,3 hPa 0,0 l/m 0 min 0 min 0 W/m 12,9 km/h (3 Bft) 100,00 %
12.10.2023 01:22 19,7 C 18,9 C 15,0 C 75 % 1012,3 hPa 0,0 l/m 0 min 0 min 0 W/m 9,7 km/h (2 Bft) 97,87 %
12.10.2023 01:24 19,7 C 18,9 C 15,0 C 75 % 1012,3 hPa 0,0 l/m 0 min 0 min 0 W/m 12,9 km/h (3 Bft) 100,00 %
12.10.2023 01:26 19,7 C 18,9 C 15,0 C 75 % 1012,3 hPa 0,0 l/m 0 min 0 min 0 W/m 9,7 km/h (2 Bft) 100,00 %
12.10.2023 01:28 19,7 C 18,9 C 15,0 C 75 % 1012,3 hPa 0,0 l/m 0 min 0 min 0 W/m 6,4 km/h (2 Bft) 100,00 %
12.10.2023 01:30 19,7 C 18,9 C 15,0 C 75 % 1012,3 hPa 0,0 l/m 0 min 0 min 0 W/m 6,4 km/h (2 Bft) 100,00 %
12.10.2023 01:32 19,7 C 18,9 C 15,0 C 75 % 1012,4 hPa 0,0 l/m 0 min 0 min 0 W/m 16,1 km/h (3 Bft) 100,00 %
12.10.2023 01:34 19,7 C 18,9 C 15,0 C 75 % 1012,4 hPa 0,0 l/m 0 min 0 min 0 W/m 12,9 km/h (3 Bft) 100,00 %
12.10.2023 01:36 19,7 C 18,9 C 15,0 C 75 % 1012,5 hPa 0,0 l/m 0 min 0 min 0 W/m 12,9 km/h (3 Bft) 100,00 %
12.10.2023 01:38 19,7 C 18,9 C 15,0 C 75 % 1012,5 hPa 0,0 l/m 0 min 0 min 0 W/m 6,4 km/h (2 Bft) 100,00 %
12.10.2023 01:40 19,7 C 18,9 C 15,0 C 75 % 1012,5 hPa 0,0 l/m 0 min 0 min 0 W/m 16,1 km/h (3 Bft) 100,00 %
12.10.2023 01:42 19,7 C 18,9 C 15,0 C 75 % 1012,5 hPa 0,0 l/m 0 min 0 min 0 W/m 16,1 km/h (3 Bft) 100,00 %
12.10.2023 01:44 19,7 C 18,9 C 15,0 C 74 % 1012,5 hPa 0,0 l/m 0 min 0 min 0 W/m 16,1 km/h (3 Bft) 100,00 %
12.10.2023 01:46 19,7 C 18,9 C 15,0 C 74 % 1012,4 hPa 0,0 l/m 0 min 0 min 0 W/m 6,4 km/h (2 Bft) 100,00 %
12.10.2023 01:48 19,7 C 18,9 C 15,0 C 74 % 1012,5 hPa 0,0 l/m 0 min 0 min 0 W/m 9,7 km/h (2 Bft) 100,00 %
12.10.2023 01:50 19,7 C 18,9 C 15,0 C 74 % 1012,5 hPa 0,0 l/m 0 min 0 min 0 W/m 6,4 km/h (2 Bft) 100,00 %
12.10.2023 01:52 19,7 C 18,9 C 15,0 C 74 % 1012,5 hPa 0,0 l/m 0 min 0 min 0 W/m 9,7 km/h (2 Bft) 97,87 %
12.10.2023 01:54 19,7 C 18,9 C 15,0 C 74 % 1012,5 hPa 0,0 l/m 0 min 0 min 0 W/m 12,9 km/h (3 Bft) 100,00 %
12.10.2023 01:56 19,7 C 18,9 C 15,0 C 74 % 1012,5 hPa 0,0 l/m 0 min 0 min 0 W/m 12,9 km/h (3 Bft) 97,87 %
12.10.2023 01:58 19,7 C 18,9 C 15,0 C 74 % 1012,3 hPa 0,0 l/m 0 min 0 min 0 W/m 6,4 km/h (2 Bft) 100,00 %
12.10.2023 02:00 19,7 C 18,9 C 15,0 C 74 % 1012,4 hPa 0,0 l/m 0 min 0 min 0 W/m 6,4 km/h (2 Bft) 100,00 %
12.10.2023 02:02 19,7 C 18,9 C 15,0 C 74 % 1012,3 hPa 0,0 l/m 0 min 0 min 0 W/m 6,4 km/h (2 Bft) 100,00 %
12.10.2023 02:04 19,7 C 18,9 C 15,0 C 74 % 1012,3 hPa 0,0 l/m 0 min 0 min 0 W/m 16,1 km/h (3 Bft) 96,00 %
12.10.2023 02:06 19,7 C 18,9 C 15,0 C 74 % 1012,2 hPa 0,0 l/m 0 min 0 min 0 W/m 12,9 km/h (3 Bft) 96,67 %
12.10.2023 02:08 19,6 C 18,9 C 15,0 C 74 % 1012,2 hPa 0,0 l/m 0 min 0 min 0 W/m 25,7 km/h (4 Bft) 97,14 %
12.10.2023 02:10 19,6 C 18,9 C 15,0 C 74 % 1012,2 hPa 0,0 l/m 0 min 0 min 0 W/m 12,9 km/h (3 Bft) 97,87 %
12.10.2023 02:14 19,6 C 18,9 C 15,0 C 74 % 1012,0 hPa 0,0 l/m 0 min 0 min 0 W/m 19,3 km/h (3 Bft) 100,00 %
12.10.2023 02:16 19,6 C 18,9 C 15,0 C 74 % 1012,0 hPa 0,0 l/m 0 min 0 min 0 W/m 16,1 km/h (3 Bft) 94,00 %
12.10.2023 02:18 19,6 C 18,9 C 15,0 C 74 % 1012,1 hPa 0,0 l/m 0 min 0 min 0 W/m 12,9 km/h (3 Bft) 93,48 %
12.10.2023 02:20 19,6 C 18,9 C 15,0 C 74 % 1012,0 hPa 0,0 l/m 0 min 0 min 0 W/m 12,9 km/h (3 Bft) 97,87 %
12.10.2023 02:22 19,6 C 18,9 C 15,0 C 74 % 1012,0 hPa 0,0 l/m 0 min 0 min 0 W/m 12,9 km/h (3 Bft) 97,87 %
12.10.2023 02:24 19,6 C 18,9 C 15,0 C 74 % 1012,0 hPa 0,0 l/m 0 min 0 min 0 W/m 6,4 km/h (2 Bft) 93,62 %
12.10.2023 02:26 19,6 C 18,9 C 15,0 C 74 % 1012,1 hPa 0,0 l/m 0 min 0 min 0 W/m 9,7 km/h (2 Bft) 94,00 %
12.10.2023 02:28 19,6 C 18,9 C 15,0 C 74 % 1012,1 hPa 0,0 l/m 0 min 0 min 0 W/m 16,1 km/h (3 Bft) 95,74 %
12.10.2023 02:30 19,6 C 18,9 C 15,0 C 74 % 1012,0 hPa 0,0 l/m 0 min 0 min 0 W/m 9,7 km/h (2 Bft) 94,29 %
12.10.2023 02:32 19,6 C 18,3 C 15,0 C 74 % 1012,0 hPa 0,0 l/m 0 min 0 min 0 W/m 25,7 km/h (4 Bft) 94,55 %
12.10.2023 02:34 19,6 C 18,3 C 14,4 C 75 % 1011,9 hPa 0,0 l/m 0 min 0 min 0 W/m 9,7 km/h (2 Bft) 93,62 %
12.10.2023 02:36 19,5 C 18,3 C 14,4 C 75 % 1012,0 hPa 0,0 l/m 0 min 0 min 0 W/m 16,1 km/h (3 Bft) 91,49 %
12.10.2023 02:38 19,5 C 18,3 C 14,4 C 74 % 1012,0 hPa 0,0 l/m 0 min 0 min 0 W/m 12,9 km/h (3 Bft) 91,49 %
12.10.2023 02:40 19,4 C 18,3 C 14,4 C 74 % 1012,1 hPa 0,0 l/m 0 min 0 min 0 W/m 12,9 km/h (3 Bft) 89,80 %
12.10.2023 02:42 19,4 C 18,3 C 14,4 C 74 % 1012,2 hPa 0,0 l/m 0 min 0 min 0 W/m 12,9 km/h (3 Bft) 93,75 %
12.10.2023 02:44 19,4 C 18,3 C 14,4 C 75 % 1012,3 hPa 0,0 l/m 0 min 0 min 0 W/m 12,9 km/h (3 Bft) 93,62 %
12.10.2023 02:46 19,4 C 18,3 C 14,4 C 75 % 1012,3 hPa 0,0 l/m 0 min 0 min 0 W/m 12,9 km/h (3 Bft) 94,29 %
12.10.2023 02:48 19,3 C 18,3 C 14,4 C 75 % 1012,4 hPa 0,0 l/m 0 min 0 min 0 W/m 12,9 km/h (3 Bft) 92,73 %
12.10.2023 02:50 19,3 C 18,3 C 14,4 C 75 % 1012,6 hPa 0,0 l/m 0 min 0 min 0 W/m 19,3 km/h (3 Bft) 90,00 %
12.10.2023 02:52 19,3 C 18,3 C 14,4 C 75 % 1012,5 hPa 0,0 l/m 0 min 0 min 0 W/m 9,7 km/h (2 Bft) 95,65 %
12.10.2023 02:54 19,3 C 18,3 C 14,4 C 75 % 1012,5 hPa 0,0 l/m 0 min 0 min 0 W/m 12,9 km/h (3 Bft) 95,74 %
12.10.2023 02:56 19,3 C 18,3 C 14,4 C 75 % 1012,6 hPa 0,0 l/m 0 min 0 min 0 W/m 16,1 km/h (3 Bft) 95,74 %
12.10.2023 02:58 19,2 C 18,3 C 14,4 C 75 % 1012,6 hPa 0,0 l/m 0 min 0 min 0 W/m 12,9 km/h (3 Bft) 93,62 %
12.10.2023 03:00 19,2 C 18,3 C 14,4 C 75 % 1012,6 hPa 0,0 l/m 0 min 0 min 0 W/m 9,7 km/h (2 Bft) 95,74 %
12.10.2023 03:02 19,2 C 18,3 C 14,4 C 75 % 1012,5 hPa 0,0 l/m 0 min 0 min 0 W/m 12,9 km/h (3 Bft) 95,74 %
12.10.2023 03:04 19,2 C 18,3 C 14,4 C 75 % 1012,5 hPa 0,0 l/m 0 min 0 min 0 W/m 12,9 km/h (3 Bft) 94,87 %
12.10.2023 03:06 19,2 C 18,3 C 14,4 C 76 % 1012,6 hPa 0,0 l/m 0 min 0 min 0 W/m 22,5 km/h (4 Bft) 97,87 %
12.10.2023 03:08 19,1 C 17,8 C 14,4 C 76 % 1012,6 hPa 0,0 l/m 0 min 2 min 0 W/m 12,9 km/h (3 Bft) 97,87 %
12.10.2023 03:10 19,1 C 17,8 C 13,9 C 76 % 1012,7 hPa 0,0 l/m 0 min 0 min 0 W/m 12,9 km/h (3 Bft) 95,65 %
12.10.2023 03:12 19,1 C 17,8 C 13,9 C 76 % 1012,7 hPa 0,0 l/m 0 min 2 min 0 W/m 12,9 km/h (3 Bft) 97,87 %
12.10.2023 03:14 19,1 C 17,8 C 13,3 C 77 % 1012,8 hPa 0,0 l/m 0 min 0 min 0 W/m 12,9 km/h (3 Bft) 100,00 %
12.10.2023 03:16 19,0 C 17,8 C 13,3 C 77 % 1012,8 hPa 0,0 l/m 0 min 2 min 0 W/m 16,1 km/h (3 Bft) 100,00 %
12.10.2023 03:18 18,9 C 17,8 C 13,3 C 77 % 1012,9 hPa 0,0 l/m 0 min 0 min 0 W/m 6,4 km/h (2 Bft) 68,09 %
12.10.2023 03:20 18,9 C 17,8 C 13,3 C 78 % 1012,9 hPa 0,0 l/m 0 min 2 min 0 W/m 16,1 km/h (3 Bft) 86,67 %
12.10.2023 03:22 18,8 C 17,8 C 13,3 C 78 % 1012,9 hPa 0,0 l/m 0 min 2 min 0 W/m 9,7 km/h (2 Bft) 100,00 %
12.10.2023 03:24 18,8 C 17,8 C 13,3 C 78 % 1012,8 hPa 0,0 l/m 0 min 2 min 0 W/m 16,1 km/h (3 Bft) 100,00 %
12.10.2023 03:26 18,7 C 17,2 C 13,3 C 79 % 1012,7 hPa 0,0 l/m 0 min 2 min 0 W/m 12,9 km/h (3 Bft) 100,00 %
12.10.2023 03:28 18,6 C 17,2 C 13,3 C 79 % 1012,7 hPa 0,0 l/m 0 min 2 min 0 W/m 6,4 km/h (2 Bft) 100,00 %
12.10.2023 03:30 18,6 C 17,2 C 13,3 C 79 % 1012,7 hPa 0,0 l/m 0 min 0 min 0 W/m 16,1 km/h (3 Bft) 97,87 %
12.10.2023 03:32 18,5 C 17,2 C 13,3 C 79 % 1012,7 hPa 0,0 l/m 0 min 0 min 0 W/m 12,9 km/h (3 Bft) 100,00 %
12.10.2023 03:34 18,4 C 17,2 C 13,3 C 79 % 1012,8 hPa 0,0 l/m 0 min 0 min 0 W/m 12,9 km/h (3 Bft) 100,00 %
12.10.2023 03:38 18,3 C 17,2 C 13,3 C 79 % 1013,0 hPa 0,0 l/m 0 min 0 min 0 W/m 16,1 km/h (3 Bft) 99,05 %
12.10.2023 03:42 18,3 C 17,2 C 13,3 C 79 % 1013,1 hPa 0,0 l/m 0 min 0 min 0 W/m 6,4 km/h (2 Bft) 100,00 %
12.10.2023 03:44 18,2 C 17,2 C 13,3 C 80 % 1013,2 hPa 0,0 l/m 0 min 0 min 0 W/m 9,7 km/h (2 Bft) 100,00 %
12.10.2023 03:46 18,2 C 17,2 C 13,3 C 80 % 1013,3 hPa 0,0 l/m 0 min 2 min 0 W/m 12,9 km/h (3 Bft) 97,87 %
12.10.2023 03:48 18,2 C 17,2 C 13,3 C 80 % 1013,3 hPa 0,0 l/m 0 min 2 min 0 W/m 12,9 km/h (3 Bft) 100,00 %
12.10.2023 03:50 18,1 C 17,2 C 13,3 C 81 % 1013,2 hPa 0,0 l/m 0 min 2 min 0 W/m 12,9 km/h (3 Bft) 100,00 %
12.10.2023 03:52 18,1 C 16,7 C 12,8 C 81 % 1013,3 hPa 0,0 l/m 0 min 2 min 0 W/m 12,9 km/h (3 Bft) 100,00 %
12.10.2023 03:54 18,0 C 16,7 C 12,8 C 81 % 1013,3 hPa 0,0 l/m 0 min 2 min 0 W/m 9,7 km/h (2 Bft) 100,00 %
12.10.2023 03:56 17,9 C 16,7 C 12,2 C 82 % 1013,3 hPa 0,0 l/m 0 min 2 min 0 W/m 16,1 km/h (3 Bft) 100,00 %
12.10.2023 03:58 17,9 C 16,7 C 12,2 C 82 % 1013,4 hPa 0,0 l/m 0 min 2 min 0 W/m 12,9 km/h (3 Bft) 100,00 %
12.10.2023 04:00 17,8 C 16,7 C 12,2 C 82 % 1013,4 hPa 0,0 l/m 0 min 2 min 0 W/m 12,9 km/h (3 Bft) 100,00 %
12.10.2023 04:02 17,8 C 16,7 C 12,2 C 83 % 1013,5 hPa 0,0 l/m 0 min 2 min 0 W/m 6,4 km/h (2 Bft) 100,00 %
12.10.2023 04:04 17,7 C 16,7 C 12,2 C 83 % 1013,5 hPa 0,0 l/m 0 min 2 min 0 W/m 12,9 km/h (3 Bft) 100,00 %
12.10.2023 04:06 17,7 C 16,7 C 11,7 C 84 % 1013,6 hPa 0,2 l/m 0 min 2 min 0 W/m 12,9 km/h (3 Bft) 100,00 %
12.10.2023 04:08 17,6 C 16,1 C 11,7 C 84 % 1013,6 hPa 0,0 l/m 0 min 2 min 0 W/m 12,9 km/h (3 Bft) 100,00 %
12.10.2023 04:10 17,5 C 16,1 C 11,1 C 85 % 1013,6 hPa 0,0 l/m 0 min 2 min 0 W/m 16,1 km/h (3 Bft) 97,87 %
12.10.2023 04:12 17,4 C 16,1 C 11,1 C 85 % 1013,6 hPa 0,2 l/m 0 min 2 min 0 W/m 12,9 km/h (3 Bft) 100,00 %
12.10.2023 04:14 17,3 C 16,1 C 11,1 C 85 % 1013,6 hPa 0,0 l/m 0 min 2 min 0 W/m 16,1 km/h (3 Bft) 100,00 %
12.10.2023 04:16 17,2 C 16,1 C 11,1 C 86 % 1013,8 hPa 0,0 l/m 0 min 2 min 0 W/m 16,1 km/h (3 Bft) 100,00 %
12.10.2023 04:18 17,2 C 15,6 C 11,1 C 86 % 1013,8 hPa 0,0 l/m 0 min 2 min 0 W/m 12,9 km/h (3 Bft) 100,00 %
12.10.2023 04:20 17,1 C 15,6 C 11,1 C 87 % 1013,8 hPa 0,0 l/m 0 min 2 min 0 W/m 12,9 km/h (3 Bft) 100,00 %
12.10.2023 04:22 17,0 C 15,6 C 11,1 C 87 % 1013,7 hPa 0,2 l/m 0 min 2 min 0 W/m 12,9 km/h (3 Bft) 97,87 %
12.10.2023 04:24 16,9 C 15,6 C 11,1 C 88 % 1013,9 hPa 0,0 l/m 0 min 2 min 0 W/m 9,7 km/h (2 Bft) 97,87 %
12.10.2023 04:26 16,9 C 15,6 C 11,1 C 88 % 1013,9 hPa 0,0 l/m 0 min 2 min 0 W/m 6,4 km/h (2 Bft) 95,74 %
12.10.2023 04:28 16,8 C 15,6 C 11,1 C 88 % 1013,7 hPa 0,0 l/m 0 min 2 min 0 W/m 12,9 km/h (3 Bft) 97,87 %
12.10.2023 04:30 16,8 C 15,6 C 11,1 C 88 % 1013,6 hPa 0,0 l/m 0 min 2 min 0 W/m 6,4 km/h (2 Bft) 97,87 %
12.10.2023 04:32 16,7 C 15,6 C 11,1 C 89 % 1013,6 hPa 0,0 l/m 0 min 2 min 0 W/m 6,4 km/h (2 Bft) 97,87 %
12.10.2023 04:34 16,7 C 15,6 C 11,1 C 89 % 1013,7 hPa 0,0 l/m 0 min 2 min 0 W/m 6,4 km/h (2 Bft) 97,87 %
12.10.2023 04:36 16,6 C 15,6 C 10,6 C 89 % 1013,7 hPa 0,2 l/m 0 min 2 min 0 W/m 6,4 km/h (2 Bft) 97,83 %
12.10.2023 04:38 16,6 C 15,6 C 11,1 C 89 % 1013,7 hPa 0,0 l/m 0 min 0 min 0 W/m 9,7 km/h (2 Bft) 97,87 %
12.10.2023 04:40 16,5 C 15,6 C 11,1 C 90 % 1013,6 hPa 0,0 l/m 0 min 0 min 0 W/m 12,9 km/h (3 Bft) 95,74 %
12.10.2023 04:42 16,5 C 15,6 C 11,1 C 90 % 1013,6 hPa 0,0 l/m 0 min 0 min 0 W/m 6,4 km/h (2 Bft) 97,87 %
12.10.2023 04:44 16,4 C 15,6 C 11,1 C 90 % 1013,6 hPa 0,0 l/m 0 min 0 min 0 W/m 6,4 km/h (2 Bft) 97,87 %
12.10.2023 04:46 16,4 C 15,0 C 11,1 C 90 % 1013,6 hPa 0,0 l/m 0 min 0 min 0 W/m 6,4 km/h (2 Bft) 97,87 %
12.10.2023 04:48 16,4 C 15,0 C 11,1 C 91 % 1013,6 hPa 0,0 l/m 0 min 0 min 0 W/m 6,4 km/h (2 Bft) 95,74 %
12.10.2023 04:50 16,4 C 15,0 C 11,1 C 91 % 1013,6 hPa 0,0 l/m 0 min 2 min 0 W/m 3,2 km/h (1 Bft) 97,87 %
12.10.2023 04:52 16,3 C 15,0 C 11,1 C 91 % 1013,8 hPa 0,0 l/m 0 min 0 min 0 W/m 6,4 km/h (2 Bft) 95,65 %
12.10.2023 04:54 16,3 C 15,0 C 11,1 C 91 % 1013,8 hPa 0,0 l/m 0 min 0 min 0 W/m 6,4 km/h (2 Bft) 98,11 %
12.10.2023 04:56 16,3 C 15,0 C 11,1 C 91 % 1013,9 hPa 0,0 l/m 0 min 0 min 0 W/m 9,7 km/h (2 Bft) 100,00 %
12.10.2023 04:58 16,2 C 15,0 C 11,1 C 91 % 1013,8 hPa 0,0 l/m 0 min 2 min 0 W/m 6,4 km/h (2 Bft) 95,83 %
12.10.2023 05:00 16,2 C 15,0 C 11,1 C 92 % 1013,8 hPa 0,0 l/m 0 min 0 min 0 W/m 6,4 km/h (2 Bft) 95,74 %
12.10.2023 05:02 16,2 C 15,0 C 11,1 C 92 % 1013,7 hPa 0,0 l/m 0 min 0 min 0 W/m 6,4 km/h (2 Bft) 97,87 %
12.10.2023 05:04 16,2 C 15,0 C 11,1 C 92 % 1013,7 hPa 0,0 l/m 0 min 0 min 0 W/m 6,4 km/h (2 Bft) 97,92 %
12.10.2023 05:10 16,1 C 15,0 C 11,1 C 92 % 1013,4 hPa 0,0 l/m 0 min 5 min 0 W/m 12,9 km/h (3 Bft) 93,75 %
12.10.2023 05:12 16,1 C 15,0 C 11,1 C 92 % 1013,2 hPa 0,0 l/m 0 min 2 min 0 W/m 9,7 km/h (2 Bft) 93,62 %
12.10.2023 05:14 16,1 C 15,0 C 11,1 C 92 % 1013,1 hPa 0,0 l/m 0 min 2 min 0 W/m 9,7 km/h (2 Bft) 93,62 %
12.10.2023 05:16 16,0 C 15,0 C 11,1 C 92 % 1013,1 hPa 0,0 l/m 0 min 0 min 0 W/m 6,4 km/h (2 Bft) 95,74 %
12.10.2023 05:18 16,0 C 15,0 C 10,6 C 92 % 1013,0 hPa 0,0 l/m 0 min 0 min 0 W/m 6,4 km/h (2 Bft) 95,74 %
12.10.2023 05:20 15,9 C 15,0 C 10,6 C 92 % 1012,8 hPa 0,0 l/m 0 min 0 min 0 W/m 12,9 km/h (3 Bft) 93,62 %
12.10.2023 05:22 15,9 C 15,0 C 10,6 C 93 % 1012,9 hPa 0,0 l/m 0 min 0 min 0 W/m 9,7 km/h (2 Bft) 95,74 %
12.10.2023 05:24 15,9 C 15,0 C 11,1 C 93 % 1013,0 hPa 0,0 l/m 0 min 2 min 0 W/m 12,9 km/h (3 Bft) 95,74 %
12.10.2023 05:26 15,9 C 15,0 C 11,1 C 93 % 1013,1 hPa 0,0 l/m 0 min 2 min 0 W/m 9,7 km/h (2 Bft) 93,48 %
12.10.2023 05:28 15,9 C 15,0 C 10,6 C 93 % 1013,2 hPa 0,0 l/m 0 min 2 min 0 W/m 12,9 km/h (3 Bft) 95,74 %
12.10.2023 05:30 15,8 C 15,0 C 10,6 C 93 % 1013,4 hPa 0,0 l/m 0 min 0 min 0 W/m 12,9 km/h (3 Bft) 93,62 %
12.10.2023 05:32 15,8 C 15,0 C 10,6 C 93 % 1013,6 hPa 0,0 l/m 0 min 0 min 0 W/m 19,3 km/h (3 Bft) 95,74 %
12.10.2023 05:34 15,8 C 14,4 C 10,6 C 93 % 1013,6 hPa 0,0 l/m 0 min 0 min 0 W/m 16,1 km/h (3 Bft) 95,74 %
12.10.2023 05:36 15,7 C 14,4 C 10,6 C 93 % 1013,6 hPa 0,0 l/m 0 min 0 min 0 W/m 16,1 km/h (3 Bft) 93,62 %
12.10.2023 05:38 15,7 C 14,4 C 10,6 C 93 % 1013,7 hPa 0,0 l/m 0 min 0 min 0 W/m 19,3 km/h (3 Bft) 95,74 %
12.10.2023 05:40 15,7 C 14,4 C 10,6 C 93 % 1013,6 hPa 0,0 l/m 0 min 0 min 0 W/m 12,9 km/h (3 Bft) 95,74 %
12.10.2023 05:42 15,6 C 14,4 C 10,6 C 93 % 1013,5 hPa 0,0 l/m 0 min 0 min 0 W/m 12,9 km/h (3 Bft) 93,62 %
12.10.2023 05:44 15,6 C 14,4 C 10,6 C 93 % 1013,5 hPa 0,0 l/m 0 min 0 min 0 W/m 6,4 km/h (2 Bft) 93,48 %
12.10.2023 05:46 15,6 C 14,4 C 10,6 C 94 % 1013,4 hPa 0,0 l/m 0 min 2 min 0 W/m 12,9 km/h (3 Bft) 97,87 %
12.10.2023 05:48 15,6 C 14,4 C 10,6 C 94 % 1013,3 hPa 0,0 l/m 0 min 0 min 0 W/m 6,4 km/h (2 Bft) 97,87 %
12.10.2023 05:50 15,6 C 14,4 C 10,6 C 94 % 1013,3 hPa 0,0 l/m 0 min 2 min 0 W/m 16,1 km/h (3 Bft) 97,87 %
12.10.2023 05:52 15,5 C 14,4 C 10,6 C 93 % 1013,2 hPa 0,0 l/m 0 min 2 min 0 W/m 6,4 km/h (2 Bft) 100,00 %
12.10.2023 05:54 15,5 C 14,4 C 10,6 C 94 % 1013,2 hPa 0,0 l/m 0 min 0 min 0 W/m 6,4 km/h (2 Bft) 100,00 %
12.10.2023 05:56 15,5 C 14,4 C 10,6 C 94 % 1013,1 hPa 0,0 l/m 0 min 2 min 0 W/m 6,4 km/h (2 Bft) 97,87 %
12.10.2023 05:58 15,5 C 14,4 C 10,6 C 94 % 1013,2 hPa 0,2 l/m 0 min 0 min 0 W/m 3,2 km/h (1 Bft) 97,96 %
12.10.2023 06:00 15,5 C 14,4 C 10,6 C 94 % 1013,2 hPa 0,0 l/m 0 min 2 min 0 W/m 6,4 km/h (2 Bft) 100,00 %
12.10.2023 06:02 15,5 C 15,0 C 10,6 C 94 % 1013,1 hPa 0,0 l/m 0 min 2 min 0 W/m 3,2 km/h (1 Bft) 97,87 %
12.10.2023 06:04 15,5 C 15,0 C 10,6 C 94 % 1013,1 hPa 0,0 l/m 0 min 2 min 0 W/m 6,4 km/h (2 Bft) 100,00 %
12.10.2023 06:08 15,5 C 14,4 C 10,6 C 94 % 1013,0 hPa 0,0 l/m 0 min 4 min 0 W/m 3,2 km/h (1 Bft) 98,89 %
12.10.2023 06:10 15,5 C 14,4 C 10,6 C 94 % 1013,1 hPa 0,0 l/m 0 min 2 min 0 W/m 3,2 km/h (1 Bft) 100,00 %
12.10.2023 06:12 15,5 C 14,4 C 10,6 C 94 % 1013,1 hPa 0,0 l/m 0 min 2 min 0 W/m 6,4 km/h (2 Bft) 100,00 %
12.10.2023 06:16 15,5 C 14,4 C 10,6 C 94 % 1013,1 hPa 0,0 l/m 0 min 4 min 0 W/m 3,2 km/h (1 Bft) 94,68 %
12.10.2023 06:18 15,5 C 14,4 C 10,6 C 94 % 1013,0 hPa 0,0 l/m 0 min 2 min 0 W/m 3,2 km/h (1 Bft) 97,83 %
12.10.2023 06:20 15,5 C 14,4 C 10,6 C 94 % 1013,1 hPa 0,0 l/m 0 min 2 min 0 W/m 3,2 km/h (1 Bft) 97,87 %
12.10.2023 06:22 15,5 C 14,4 C 10,6 C 94 % 1013,2 hPa 0,0 l/m 0 min 2 min 0 W/m 6,4 km/h (2 Bft) 95,74 %
12.10.2023 06:24 15,4 C 14,4 C 10,6 C 94 % 1013,2 hPa 0,0 l/m 0 min 2 min 0 W/m 3,2 km/h (1 Bft) 95,74 %
12.10.2023 06:26 15,4 C 14,4 C 10,6 C 94 % 1013,2 hPa 0,0 l/m 0 min 2 min 0 W/m 3,2 km/h (1 Bft) 95,74 %
12.10.2023 06:28 15,4 C 14,4 C 10,6 C 94 % 1013,1 hPa 0,2 l/m 0 min 2 min 0 W/m 0,0 km/h (0 Bft) 95,74 %
12.10.2023 06:30 15,4 C 14,4 C 10,6 C 94 % 1013,2 hPa 0,0 l/m 0 min 2 min 0 W/m 6,4 km/h (2 Bft) 97,87 %
12.10.2023 06:32 15,4 C 14,4 C 10,6 C 94 % 1013,2 hPa 0,0 l/m 0 min 2 min 0 W/m 6,4 km/h (2 Bft) 97,87 %
12.10.2023 06:34 15,4 C 14,4 C 10,6 C 94 % 1013,2 hPa 0,0 l/m 0 min 2 min 0 W/m 3,2 km/h (1 Bft) 97,87 %
12.10.2023 06:36 15,4 C 14,4 C 10,6 C 94 % 1013,4 hPa 0,0 l/m 0 min 2 min 0 W/m 3,2 km/h (1 Bft) 97,87 %
12.10.2023 06:38 15,4 C 14,4 C 10,6 C 94 % 1013,5 hPa 0,0 l/m 0 min 2 min 0 W/m 3,2 km/h (1 Bft) 97,83 %
12.10.2023 06:40 15,4 C 14,4 C 10,6 C 94 % 1013,5 hPa 0,0 l/m 0 min 2 min 0 W/m 3,2 km/h (1 Bft) 97,87 %
12.10.2023 06:42 15,4 C 14,4 C 10,6 C 94 % 1013,6 hPa 0,0 l/m 0 min 0 min 0 W/m 6,4 km/h (2 Bft) 100,00 %
12.10.2023 06:44 15,4 C 14,4 C 10,6 C 94 % 1013,5 hPa 0,0 l/m 0 min 2 min 0 W/m 0,0 km/h (0 Bft) 100,00 %
12.10.2023 06:46 15,4 C 14,4 C 10,6 C 94 % 1013,6 hPa 0,0 l/m 0 min 2 min 0 W/m 6,4 km/h (2 Bft) 100,00 %
12.10.2023 06:48 15,4 C 14,4 C 10,6 C 94 % 1013,6 hPa 0,0 l/m 0 min 2 min 0 W/m 3,2 km/h (1 Bft) 97,87 %
12.10.2023 06:50 15,4 C 14,4 C 10,6 C 94 % 1013,6 hPa 0,0 l/m 0 min 2 min 0 W/m 3,2 km/h (1 Bft) 100,00 %
12.10.2023 06:52 15,4 C 14,4 C 10,6 C 95 % 1013,7 hPa 0,2 l/m 0 min 2 min 0 W/m 12,9 km/h (3 Bft) 100,00 %
12.10.2023 06:54 15,4 C 14,4 C 10,6 C 95 % 1013,8 hPa 0,0 l/m 0 min 2 min 0 W/m 3,2 km/h (1 Bft) 95,74 %
12.10.2023 06:56 15,4 C 14,4 C 10,6 C 95 % 1013,8 hPa 0,0 l/m 0 min 2 min 0 W/m 3,2 km/h (1 Bft) 100,00 %
12.10.2023 06:58 15,4 C 14,4 C 10,6 C 95 % 1013,8 hPa 0,0 l/m 0 min 2 min 0 W/m 9,7 km/h (2 Bft) 100,00 %
12.10.2023 07:00 15,3 C 14,4 C 10,6 C 95 % 1013,7 hPa 0,0 l/m 0 min 2 min 0 W/m 6,4 km/h (2 Bft) 100,00 %
12.10.2023 07:02 15,3 C 14,4 C 10,6 C 95 % 1013,7 hPa 0,0 l/m 0 min 2 min 0 W/m 9,7 km/h (2 Bft) 95,74 %
12.10.2023 07:04 15,3 C 14,4 C 10,6 C 95 % 1013,7 hPa 0,2 l/m 0 min 2 min 0 W/m 6,4 km/h (2 Bft) 100,00 %
12.10.2023 07:06 15,3 C 14,4 C 10,6 C 95 % 1013,8 hPa 0,0 l/m 0 min 2 min 0 W/m 6,4 km/h (2 Bft) 100,00 %
12.10.2023 07:08 15,2 C 14,4 C 10,6 C 95 % 1013,9 hPa 0,0 l/m 0 min 2 min 0 W/m 6,4 km/h (2 Bft) 100,00 %
12.10.2023 07:10 15,2 C 14,4 C 10,6 C 95 % 1013,8 hPa 0,0 l/m 0 min 2 min 0 W/m 3,2 km/h (1 Bft) 100,00 %
12.10.2023 07:12 15,2 C 14,4 C 10,6 C 95 % 1013,8 hPa 0,0 l/m 0 min 2 min 0 W/m 3,2 km/h (1 Bft) 100,00 %
12.10.2023 07:14 15,2 C 14,4 C 10,6 C 95 % 1013,7 hPa 0,0 l/m 0 min 2 min 0 W/m 3,2 km/h (1 Bft) 100,00 %
12.10.2023 07:16 15,2 C 14,4 C 10,6 C 95 % 1013,7 hPa 0,0 l/m 0 min 2 min 0 W/m 3,2 km/h (1 Bft) 97,87 %
12.10.2023 07:18 15,2 C 14,4 C 10,6 C 95 % 1013,7 hPa 0,0 l/m 0 min 2 min 0 W/m 3,2 km/h (1 Bft) 97,87 %
12.10.2023 07:20 15,2 C 14,4 C 10,6 C 95 % 1013,7 hPa 0,0 l/m 0 min 2 min 0 W/m 3,2 km/h (1 Bft) 100,00 %
12.10.2023 07:22 15,2 C 14,4 C 10,6 C 95 % 1013,7 hPa 0,0 l/m 0 min 2 min 0 W/m 6,4 km/h (2 Bft) 100,00 %
12.10.2023 07:24 15,2 C 14,4 C 10,6 C 95 % 1013,6 hPa 0,0 l/m 0 min 2 min 0 W/m 3,2 km/h (1 Bft) 97,87 %
12.10.2023 07:26 15,2 C 14,4 C 10,6 C 95 % 1013,6 hPa 0,0 l/m 0 min 2 min 0 W/m 3,2 km/h (1 Bft) 97,87 %
12.10.2023 07:28 15,2 C 14,4 C 10,6 C 95 % 1013,7 hPa 0,0 l/m 0 min 2 min 0 W/m 0,0 km/h (0 Bft) 95,65 %
12.10.2023 07:30 15,3 C 14,4 C 10,6 C 95 % 1013,7 hPa 0,0 l/m 0 min 2 min 0 W/m 0,0 km/h (0 Bft) 97,87 %
12.10.2023 07:32 15,3 C 14,4 C 10,6 C 95 % 1013,7 hPa 0,0 l/m 0 min 2 min 0 W/m 0,0 km/h (0 Bft) 97,87 %
12.10.2023 07:34 15,3 C 14,4 C 10,6 C 95 % 1013,7 hPa 0,2 l/m 0 min 2 min 0 W/m 0,0 km/h (0 Bft) 97,87 %
12.10.2023 07:36 15,3 C 14,4 C 10,6 C 95 % 1013,6 hPa 0,0 l/m 0 min 2 min 0 W/m 0,0 km/h (0 Bft) 93,62 %
12.10.2023 07:38 15,3 C 14,4 C 10,6 C 95 % 1013,7 hPa 0,0 l/m 0 min 2 min 0 W/m 0,0 km/h (0 Bft) 95,74 %
12.10.2023 07:40 15,3 C 14,4 C 10,6 C 95 % 1013,7 hPa 0,0 l/m 0 min 2 min 0 W/m 0,0 km/h (0 Bft) 97,87 %
12.10.2023 07:42 15,3 C 14,4 C 10,6 C 95 % 1013,8 hPa 0,0 l/m 0 min 2 min 0 W/m 0,0 km/h (0 Bft) 97,87 %
12.10.2023 07:44 15,3 C 14,4 C 10,6 C 95 % 1013,9 hPa 0,0 l/m 0 min 2 min 0 W/m 3,2 km/h (1 Bft) 95,74 %
12.10.2023 07:46 15,2 C 14,4 C 10,6 C 95 % 1013,9 hPa 0,0 l/m 0 min 2 min 0 W/m 6,4 km/h (2 Bft) 97,87 %
12.10.2023 07:48 15,2 C 14,4 C 10,6 C 95 % 1013,9 hPa 0,2 l/m 0 min 2 min 0 W/m 3,2 km/h (1 Bft) 97,83 %
12.10.2023 07:50 15,2 C 14,4 C 10,6 C 96 % 1013,8 hPa 0,0 l/m 0 min 2 min 0 W/m 3,2 km/h (1 Bft) 97,87 %
12.10.2023 07:52 15,2 C 14,4 C 10,6 C 96 % 1013,9 hPa 0,0 l/m 0 min 2 min 0 W/m 0,0 km/h (0 Bft) 97,87 %
12.10.2023 07:54 15,2 C 13,9 C 10,6 C 96 % 1013,9 hPa 0,0 l/m 0 min 2 min 0 W/m 3,2 km/h (1 Bft) 97,87 %
12.10.2023 07:56 15,2 C 13,9 C 10,6 C 96 % 1013,9 hPa 0,0 l/m 0 min 2 min 0 W/m 0,0 km/h (0 Bft) 98,00 %
12.10.2023 07:58 15,2 C 13,9 C 10,6 C 96 % 1013,9 hPa 0,0 l/m 0 min 2 min 0 W/m 0,0 km/h (0 Bft) 97,73 %
12.10.2023 08:00 15,2 C 13,9 C 10,6 C 96 % 1013,9 hPa 0,0 l/m 0 min 2 min 0 W/m 0,0 km/h (0 Bft) 95,74 %
12.10.2023 08:02 15,2 C 13,9 C 10,6 C 96 % 1013,9 hPa 0,0 l/m 0 min 2 min 0 W/m 0,0 km/h (0 Bft) 95,74 %
12.10.2023 08:04 15,2 C 13,9 C 10,6 C 96 % 1013,9 hPa 0,0 l/m 0 min 2 min 0 W/m 0,0 km/h (0 Bft) 92,00 %
12.10.2023 08:06 15,2 C 13,9 C 10,6 C 96 % 1014,0 hPa 0,0 l/m 0 min 2 min 0 W/m 6,4 km/h (2 Bft) 93,88 %
12.10.2023 08:08 15,2 C 13,9 C 10,6 C 96 % 1014,0 hPa 0,0 l/m 0 min 2 min 0 W/m 9,7 km/h (2 Bft) 91,49 %
12.10.2023 08:10 15,2 C 14,4 C 10,6 C 96 % 1014,1 hPa 0,0 l/m 0 min 0 min 0 W/m 6,4 km/h (2 Bft) 95,65 %
12.10.2023 08:12 15,2 C 14,4 C 10,6 C 96 % 1014,1 hPa 0,0 l/m 0 min 2 min 0 W/m 6,4 km/h (2 Bft) 95,74 %
12.10.2023 08:14 15,2 C 14,4 C 10,6 C 96 % 1014,1 hPa 0,0 l/m 0 min 0 min 0 W/m 9,7 km/h (2 Bft) 95,74 %
12.10.2023 08:16 15,2 C 14,4 C 10,6 C 96 % 1014,1 hPa 0,0 l/m 0 min 2 min 0 W/m 6,4 km/h (2 Bft) 93,62 %
12.10.2023 08:18 15,2 C 14,4 C 10,6 C 96 % 1014,1 hPa 0,0 l/m 0 min 0 min 0 W/m 6,4 km/h (2 Bft) 95,74 %
12.10.2023 08:20 15,2 C 14,4 C 10,6 C 96 % 1014,1 hPa 0,0 l/m 0 min 0 min 2 W/m 6,4 km/h (2 Bft) 93,62 %
12.10.2023 08:22 15,2 C 14,4 C 10,6 C 96 % 1014,1 hPa 0,0 l/m 0 min 2 min 5 W/m 3,2 km/h (1 Bft) 93,62 %
12.10.2023 08:24 15,2 C 14,4 C 10,6 C 96 % 1014,1 hPa 0,0 l/m 0 min 0 min 3 W/m 6,4 km/h (2 Bft) 97,14 %
12.10.2023 08:26 15,2 C 14,4 C 10,6 C 96 % 1014,1 hPa 0,0 l/m 0 min 0 min 0 W/m 6,4 km/h (2 Bft) 92,86 %
12.10.2023 08:28 15,2 C 14,4 C 10,6 C 96 % 1014,1 hPa 0,0 l/m 0 min 0 min 0 W/m 6,4 km/h (2 Bft) 93,62 %
12.10.2023 08:30 15,2 C 14,4 C 10,6 C 96 % 1014,2 hPa 0,0 l/m 0 min 0 min 4 W/m 3,2 km/h (1 Bft) 97,83 %
12.10.2023 08:32 15,2 C 14,4 C 10,6 C 96 % 1014,2 hPa 0,0 l/m 0 min 0 min 5 W/m 3,2 km/h (1 Bft) 95,74 %
12.10.2023 08:34 15,2 C 14,4 C 10,6 C 96 % 1014,3 hPa 0,0 l/m 0 min 0 min 5 W/m 6,4 km/h (2 Bft) 97,87 %
12.10.2023 08:36 15,2 C 14,4 C 10,6 C 96 % 1014,2 hPa 0,0 l/m 0 min 0 min 5 W/m 12,9 km/h (3 Bft) 97,87 %
12.10.2023 08:38 15,2 C 14,4 C 10,6 C 96 % 1014,3 hPa 0,0 l/m 0 min 0 min 5 W/m 9,7 km/h (2 Bft) 97,87 %
12.10.2023 08:40 15,2 C 14,4 C 10,6 C 96 % 1014,3 hPa 0,0 l/m 0 min 0 min 5 W/m 3,2 km/h (1 Bft) 95,83 %
12.10.2023 08:42 15,2 C 14,4 C 10,6 C 96 % 1014,2 hPa 0,0 l/m 0 min 0 min 5 W/m 3,2 km/h (1 Bft) 95,74 %
12.10.2023 08:44 15,3 C 14,4 C 10,6 C 96 % 1014,3 hPa 0,0 l/m 0 min 0 min 5 W/m 0,0 km/h (0 Bft) 97,87 %
12.10.2023 08:46 15,3 C 14,4 C 10,6 C 96 % 1014,3 hPa 0,0 l/m 0 min 0 min 5 W/m 0,0 km/h (0 Bft) 97,83 %
12.10.2023 08:48 15,3 C 14,4 C 10,6 C 96 % 1014,3 hPa 0,0 l/m 0 min 0 min 5 W/m 9,7 km/h (2 Bft) 95,74 %
12.10.2023 08:50 15,3 C 14,4 C 10,6 C 97 % 1014,3 hPa 0,0 l/m 0 min 0 min 5 W/m 9,7 km/h (2 Bft) 97,87 %
12.10.2023 08:52 15,3 C 14,4 C 10,6 C 97 % 1014,3 hPa 0,0 l/m 0 min 0 min 6 W/m 6,4 km/h (2 Bft) 97,87 %
12.10.2023 08:54 15,3 C 14,4 C 10,6 C 97 % 1014,3 hPa 0,0 l/m 0 min 0 min 7 W/m 9,7 km/h (2 Bft) 95,74 %
12.10.2023 08:56 15,3 C 14,4 C 10,6 C 97 % 1014,3 hPa 0,0 l/m 0 min 0 min 8 W/m 3,2 km/h (1 Bft) 97,87 %
12.10.2023 08:58 15,3 C 14,4 C 10,6 C 97 % 1014,3 hPa 0,0 l/m 0 min 0 min 11 W/m 0,0 km/h (0 Bft) 97,67 %
12.10.2023 09:00 15,3 C 14,4 C 10,6 C 97 % 1014,3 hPa 0,0 l/m 0 min 0 min 12 W/m 3,2 km/h (1 Bft) 100,00 %
12.10.2023 09:02 15,3 C 14,4 C 11,1 C 97 % 1014,3 hPa 0,0 l/m 0 min 0 min 12 W/m 9,7 km/h (2 Bft) 100,00 %
12.10.2023 09:04 15,3 C 14,4 C 11,1 C 97 % 1014,4 hPa 0,0 l/m 0 min 0 min 12 W/m 3,2 km/h (1 Bft) 98,04 %
12.10.2023 09:10 15,4 C 14,4 C 10,6 C 97 % 1014,5 hPa 0,0 l/m 0 min 0 min 12 W/m 9,7 km/h (2 Bft) 96,95 %
12.10.2023 09:12 15,4 C 14,4 C 10,6 C 97 % 1014,5 hPa 0,0 l/m 0 min 0 min 12 W/m 6,4 km/h (2 Bft) 100,00 %
12.10.2023 09:14 15,4 C 14,4 C 11,1 C 97 % 1014,5 hPa 0,0 l/m 0 min 0 min 12 W/m 3,2 km/h (1 Bft) 97,87 %
12.10.2023 09:16 15,4 C 14,4 C 11,1 C 97 % 1014,6 hPa 0,0 l/m 0 min 0 min 13 W/m 3,2 km/h (1 Bft) 97,87 %
12.10.2023 09:18 15,4 C 14,4 C 11,1 C 97 % 1014,6 hPa 0,0 l/m 0 min 0 min 16 W/m 0,0 km/h (0 Bft) 100,00 %
12.10.2023 09:20 15,4 C 15,0 C 11,1 C 97 % 1014,6 hPa 0,0 l/m 0 min 0 min 16 W/m 3,2 km/h (1 Bft) 100,00 %
12.10.2023 09:22 15,4 C 15,0 C 11,1 C 97 % 1014,6 hPa 0,0 l/m 0 min 0 min 16 W/m 9,7 km/h (2 Bft) 97,87 %
12.10.2023 09:24 15,4 C 15,0 C 11,1 C 97 % 1014,6 hPa 0,0 l/m 0 min 0 min 18 W/m 6,4 km/h (2 Bft) 100,00 %
12.10.2023 09:26 15,4 C 15,0 C 11,1 C 97 % 1014,6 hPa 0,0 l/m 0 min 0 min 18 W/m 9,7 km/h (2 Bft) 100,00 %
12.10.2023 09:28 15,4 C 15,0 C 11,1 C 97 % 1014,7 hPa 0,0 l/m 0 min 0 min 17 W/m 6,4 km/h (2 Bft) 97,87 %
12.10.2023 09:30 15,4 C 15,0 C 11,1 C 97 % 1014,7 hPa 0,0 l/m 0 min 0 min 16 W/m 6,4 km/h (2 Bft) 100,00 %
12.10.2023 09:36 15,4 C 15,0 C 11,1 C 97 % 1014,8 hPa 0,0 l/m 0 min 0 min 16 W/m 6,4 km/h (2 Bft) 100,00 %
12.10.2023 09:38 15,4 C 15,0 C 11,1 C 97 % 1014,8 hPa 0,0 l/m 0 min 0 min 16 W/m 6,4 km/h (2 Bft) 100,00 %
12.10.2023 09:40 15,5 C 15,0 C 11,1 C 97 % 1014,8 hPa 0,0 l/m 0 min 0 min 18 W/m 9,7 km/h (2 Bft) 95,74 %
12.10.2023 09:42 15,4 C 15,0 C 11,1 C 97 % 1014,8 hPa 0,0 l/m 0 min 0 min 19 W/m 9,7 km/h (2 Bft) 97,87 %
12.10.2023 09:44 15,5 C 15,0 C 11,1 C 97 % 1014,8 hPa 0,0 l/m 0 min 0 min 25 W/m 3,2 km/h (1 Bft) 100,00 %
12.10.2023 09:46 15,5 C 15,0 C 11,1 C 97 % 1014,8 hPa 0,0 l/m 0 min 0 min 28 W/m 9,7 km/h (2 Bft) 96,36 %
12.10.2023 09:48 15,5 C 15,0 C 11,1 C 97 % 1014,8 hPa 0,0 l/m 0 min 0 min 31 W/m 9,7 km/h (2 Bft) 97,87 %
12.10.2023 09:50 15,5 C 15,0 C 11,1 C 97 % 1014,8 hPa 0,0 l/m 0 min 0 min 29 W/m 6,4 km/h (2 Bft) 97,87 %
12.10.2023 09:52 15,5 C 15,0 C 11,1 C 97 % 1014,8 hPa 0,0 l/m 0 min 0 min 30 W/m 6,4 km/h (2 Bft) 95,74 %
12.10.2023 09:54 15,5 C 15,0 C 11,1 C 97 % 1014,8 hPa 0,0 l/m 0 min 0 min 31 W/m 3,2 km/h (1 Bft) 93,62 %
12.10.2023 09:56 15,5 C 15,0 C 11,1 C 96 % 1014,8 hPa 0,0 l/m 0 min 0 min 30 W/m 6,4 km/h (2 Bft) 97,87 %
12.10.2023 10:00 15,5 C 15,0 C 11,1 C 96 % 1014,8 hPa 0,0 l/m 0 min 0 min 34 W/m 0,0 km/h (0 Bft) 97,07 %
12.10.2023 10:02 15,5 C 15,0 C 11,1 C 97 % 1014,8 hPa 0,0 l/m 0 min 0 min 37 W/m 9,7 km/h (2 Bft) 92,06 %
12.10.2023 10:04 15,6 C 15,0 C 11,1 C 97 % 1014,8 hPa 0,0 l/m 0 min 0 min 41 W/m 6,4 km/h (2 Bft) 92,16 %
12.10.2023 10:06 15,6 C 15,0 C 11,1 C 97 % 1014,7 hPa 0,0 l/m 0 min 0 min 40 W/m 3,2 km/h (1 Bft) 95,74 %
12.10.2023 10:08 15,6 C 15,0 C 11,1 C 97 % 1014,8 hPa 0,0 l/m 0 min 0 min 39 W/m 12,9 km/h (3 Bft) 95,74 %
12.10.2023 10:10 15,6 C 15,0 C 11,1 C 97 % 1014,8 hPa 0,0 l/m 0 min 0 min 36 W/m 9,7 km/h (2 Bft) 89,36 %
12.10.2023 10:12 15,6 C 15,0 C 11,1 C 97 % 1014,8 hPa 0,0 l/m 0 min 0 min 32 W/m 12,9 km/h (3 Bft) 93,62 %
12.10.2023 10:14 15,6 C 15,0 C 11,1 C 97 % 1014,9 hPa 0,0 l/m 0 min 0 min 29 W/m 9,7 km/h (2 Bft) 95,74 %
12.10.2023 10:16 15,6 C 15,0 C 11,1 C 96 % 1014,9 hPa 0,0 l/m 0 min 0 min 28 W/m 9,7 km/h (2 Bft) 93,75 %
12.10.2023 10:18 15,6 C 15,6 C 11,1 C 96 % 1014,9 hPa 0,0 l/m 0 min 0 min 27 W/m 6,4 km/h (2 Bft) 95,74 %
12.10.2023 10:20 15,7 C 15,6 C 11,1 C 96 % 1015,0 hPa 0,0 l/m 0 min 0 min 25 W/m 9,7 km/h (2 Bft) 93,48 %
12.10.2023 10:22 15,7 C 15,6 C 11,1 C 96 % 1014,9 hPa 0,0 l/m 0 min 0 min 29 W/m 9,7 km/h (2 Bft) 97,87 %
12.10.2023 10:24 15,7 C 15,6 C 11,1 C 96 % 1014,9 hPa 0,0 l/m 0 min 0 min 34 W/m 9,7 km/h (2 Bft) 97,87 %
12.10.2023 10:26 15,7 C 15,6 C 11,1 C 96 % 1014,9 hPa 0,0 l/m 0 min 0 min 40 W/m 12,9 km/h (3 Bft) 97,87 %
12.10.2023 10:28 15,7 C 15,6 C 11,1 C 96 % 1014,9 hPa 0,0 l/m 0 min 0 min 47 W/m 6,4 km/h (2 Bft) 95,74 %
12.10.2023 10:30 15,7 C 15,6 C 11,1 C 96 % 1014,9 hPa 0,0 l/m 0 min 0 min 46 W/m 0,0 km/h (0 Bft) 97,87 %
12.10.2023 10:32 15,7 C 15,6 C 11,1 C 96 % 1015,0 hPa 0,0 l/m 0 min 0 min 47 W/m 12,9 km/h (3 Bft) 97,83 %
12.10.2023 10:34 15,7 C 15,6 C 11,1 C 96 % 1015,0 hPa 0,0 l/m 0 min 0 min 52 W/m 6,4 km/h (2 Bft) 97,87 %
12.10.2023 10:36 15,8 C 15,6 C 11,1 C 96 % 1014,9 hPa 0,0 l/m 0 min 0 min 56 W/m 6,4 km/h (2 Bft) 97,87 %
12.10.2023 10:38 15,8 C 15,6 C 11,1 C 96 % 1014,9 hPa 0,0 l/m 0 min 0 min 54 W/m 12,9 km/h (3 Bft) 100,00 %
12.10.2023 10:40 15,8 C 15,6 C 11,1 C 96 % 1014,9 hPa 0,0 l/m 0 min 0 min 60 W/m 3,2 km/h (1 Bft) 100,00 %
12.10.2023 10:42 15,8 C 15,6 C 11,1 C 96 % 1014,9 hPa 0,0 l/m 0 min 0 min 65 W/m 9,7 km/h (2 Bft) 97,87 %
12.10.2023 10:44 15,9 C 15,6 C 11,1 C 96 % 1014,9 hPa 0,0 l/m 0 min 0 min 64 W/m 6,4 km/h (2 Bft) 100,00 %
12.10.2023 10:46 15,9 C 15,6 C 11,1 C 96 % 1014,9 hPa 0,0 l/m 0 min 0 min 67 W/m 6,4 km/h (2 Bft) 95,74 %
12.10.2023 10:48 15,9 C 15,6 C 11,1 C 96 % 1014,9 hPa 0,0 l/m 0 min 0 min 76 W/m 12,9 km/h (3 Bft) 100,00 %
12.10.2023 10:50 15,9 C 15,6 C 11,1 C 96 % 1015,0 hPa 0,0 l/m 0 min 0 min 70 W/m 9,7 km/h (2 Bft) 100,00 %
12.10.2023 10:52 15,9 C 15,6 C 11,1 C 96 % 1014,9 hPa 0,0 l/m 0 min 0 min 62 W/m 6,4 km/h (2 Bft) 97,83 %
12.10.2023 10:54 16,0 C 15,6 C 11,1 C 96 % 1015,0 hPa 0,0 l/m 0 min 0 min 60 W/m 16,1 km/h (3 Bft) 98,15 %
12.10.2023 10:56 16,0 C 15,6 C 11,7 C 96 % 1014,9 hPa 0,0 l/m 0 min 0 min 58 W/m 3,2 km/h (1 Bft) 41,18 %
12.10.2023 10:58 16,0 C 15,6 C 11,7 C 95 % 1014,9 hPa 0,0 l/m 0 min 0 min 58 W/m 6,4 km/h (2 Bft) 96,97 %
12.10.2023 11:00 16,1 C 15,6 C 11,7 C 95 % 1014,9 hPa 0,0 l/m 0 min 0 min 56 W/m 6,4 km/h (2 Bft) 73,68 %
12.10.2023 11:04 16,1 C 16,1 C 11,7 C 95 % 1014,9 hPa 0,0 l/m 0 min 0 min 69 W/m 6,4 km/h (2 Bft) 100,00 %
12.10.2023 11:06 16,1 C 16,1 C 11,7 C 95 % 1014,9 hPa 0,0 l/m 0 min 0 min 71 W/m 16,1 km/h (3 Bft) 98,51 %
12.10.2023 11:08 16,2 C 16,1 C 11,7 C 95 % 1014,9 hPa 0,0 l/m 0 min 0 min 80 W/m 12,9 km/h (3 Bft) 95,65 %
12.10.2023 11:10 16,2 C 16,1 C 11,7 C 95 % 1014,9 hPa 0,0 l/m 0 min 0 min 94 W/m 3,2 km/h (1 Bft) 98,28 %
12.10.2023 11:12 16,2 C 16,1 C 12,2 C 95 % 1014,9 hPa 0,0 l/m 0 min 0 min 111 W/m 3,2 km/h (1 Bft) 97,87 %
12.10.2023 11:14 16,2 C 16,1 C 12,2 C 95 % 1014,9 hPa 0,0 l/m 0 min 0 min 123 W/m 9,7 km/h (2 Bft) 97,87 %
12.10.2023 11:16 16,3 C 16,7 C 12,2 C 95 % 1014,9 hPa 0,0 l/m 0 min 0 min 116 W/m 16,1 km/h (3 Bft) 97,83 %
12.10.2023 11:18 16,3 C 16,7 C 12,2 C 95 % 1015,0 hPa 0,0 l/m 0 min 0 min 120 W/m 6,4 km/h (2 Bft) 93,62 %
12.10.2023 11:20 16,4 C 16,7 C 12,2 C 95 % 1014,9 hPa 0,0 l/m 0 min 0 min 134 W/m 9,7 km/h (2 Bft) 97,87 %
12.10.2023 11:22 16,4 C 16,7 C 12,2 C 95 % 1014,9 hPa 0,0 l/m 0 min 0 min 149 W/m 9,7 km/h (2 Bft) 95,74 %
12.10.2023 11:24 16,4 C 16,7 C 12,8 C 95 % 1014,9 hPa 0,0 l/m 0 min 0 min 155 W/m 3,2 km/h (1 Bft) 97,87 %
12.10.2023 11:26 16,5 C 16,7 C 12,8 C 95 % 1014,9 hPa 0,0 l/m 0 min 0 min 152 W/m 9,7 km/h (2 Bft) 95,74 %
12.10.2023 11:28 16,6 C 17,2 C 12,8 C 95 % 1014,9 hPa 0,0 l/m 0 min 0 min 146 W/m 12,9 km/h (3 Bft) 97,87 %
12.10.2023 11:30 16,6 C 17,2 C 12,8 C 94 % 1014,9 hPa 0,0 l/m 0 min 0 min 153 W/m 12,9 km/h (3 Bft) 97,87 %
12.10.2023 11:32 16,7 C 17,2 C 12,8 C 94 % 1014,9 hPa 0,0 l/m 0 min 0 min 163 W/m 9,7 km/h (2 Bft) 97,83 %
12.10.2023 11:34 16,7 C 17,2 C 12,8 C 94 % 1014,9 hPa 0,0 l/m 0 min 0 min 173 W/m 6,4 km/h (2 Bft) 93,62 %
12.10.2023 11:36 16,8 C 17,2 C 12,8 C 94 % 1014,9 hPa 0,0 l/m 0 min 0 min 179 W/m 6,4 km/h (2 Bft) 93,62 %
12.10.2023 11:38 16,8 C 17,8 C 12,8 C 94 % 1014,9 hPa 0,0 l/m 0 min 0 min 179 W/m 9,7 km/h (2 Bft) 100,00 %
12.10.2023 11:40 16,9 C 17,8 C 13,3 C 94 % 1014,9 hPa 0,0 l/m 0 min 0 min 178 W/m 9,7 km/h (2 Bft) 96,61 %
12.10.2023 11:42 17,0 C 17,8 C 13,3 C 94 % 1015,0 hPa 0,0 l/m 0 min 0 min 168 W/m 6,4 km/h (2 Bft) 94,29 %
12.10.2023 11:44 17,1 C 17,8 C 13,3 C 94 % 1015,0 hPa 0,0 l/m 0 min 0 min 146 W/m 0,0 km/h (0 Bft) 96,00 %
12.10.2023 11:46 17,1 C 17,8 C 13,3 C 94 % 1014,9 hPa 0,0 l/m 0 min 0 min 135 W/m 0,0 km/h (0 Bft) 91,30 %
12.10.2023 11:48 17,2 C 17,8 C 13,3 C 93 % 1014,9 hPa 0,0 l/m 0 min 0 min 143 W/m 0,0 km/h (0 Bft) 95,74 %
12.10.2023 11:50 17,2 C 17,8 C 13,3 C 93 % 1014,8 hPa 0,0 l/m 0 min 0 min 166 W/m 0,0 km/h (0 Bft) 95,74 %
12.10.2023 11:52 17,3 C 17,8 C 13,3 C 93 % 1014,8 hPa 0,0 l/m 0 min 0 min 186 W/m 0,0 km/h (0 Bft) 95,74 %
12.10.2023 11:54 17,3 C 17,8 C 13,3 C 93 % 1014,8 hPa 0,0 l/m 0 min 0 min 191 W/m 0,0 km/h (0 Bft) 94,34 %
12.10.2023 11:56 17,4 C 17,8 C 13,3 C 93 % 1015,0 hPa 0,0 l/m 0 min 0 min 184 W/m 6,4 km/h (2 Bft) 95,74 %
12.10.2023 11:58 17,4 C 17,8 C 13,9 C 93 % 1014,9 hPa 0,0 l/m 0 min 0 min 173 W/m 9,7 km/h (2 Bft) 95,74 %
12.10.2023 12:00 17,5 C 18,3 C 13,9 C 93 % 1014,9 hPa 0,0 l/m 0 min 0 min 178 W/m 6,4 km/h (2 Bft) 97,87 %
12.10.2023 12:02 17,6 C 18,3 C 13,9 C 93 % 1014,9 hPa 0,0 l/m 0 min 0 min 188 W/m 6,4 km/h (2 Bft) 97,87 %
12.10.2023 12:04 17,6 C 18,3 C 13,9 C 93 % 1014,8 hPa 0,0 l/m 0 min 0 min 194 W/m 3,2 km/h (1 Bft) 97,83 %
12.10.2023 12:08 17,7 C 18,3 C 13,9 C 92 % 1014,8 hPa 0,0 l/m 0 min 0 min 206 W/m 6,4 km/h (2 Bft) 95,60 %
12.10.2023 12:10 17,7 C 18,3 C 13,9 C 92 % 1014,8 hPa 0,0 l/m 0 min 0 min 202 W/m 12,9 km/h (3 Bft) 97,87 %
12.10.2023 12:12 17,8 C 18,3 C 13,9 C 92 % 1014,8 hPa 0,0 l/m 0 min 0 min 196 W/m 9,7 km/h (2 Bft) 95,74 %
12.10.2023 12:16 17,8 C 18,3 C 13,9 C 92 % 1014,8 hPa 0,0 l/m 0 min 0 min 188 W/m 6,4 km/h (2 Bft) 97,85 %
12.10.2023 12:18 17,9 C 18,3 C 13,9 C 92 % 1014,9 hPa 0,0 l/m 0 min 0 min 174 W/m 3,2 km/h (1 Bft) 100,00 %
12.10.2023 12:20 17,9 C 18,3 C 13,9 C 91 % 1014,8 hPa 0,0 l/m 0 min 0 min 170 W/m 6,4 km/h (2 Bft) 97,87 %
12.10.2023 12:22 18,0 C 18,3 C 13,9 C 91 % 1014,7 hPa 0,0 l/m 0 min 0 min 182 W/m 9,7 km/h (2 Bft) 97,87 %
12.10.2023 12:24 18,1 C 18,3 C 13,9 C 91 % 1014,8 hPa 0,0 l/m 0 min 0 min 194 W/m 3,2 km/h (1 Bft) 100,00 %
12.10.2023 12:26 18,1 C 18,9 C 14,4 C 91 % 1014,8 hPa 0,0 l/m 0 min 0 min 196 W/m 3,2 km/h (1 Bft) 100,00 %
12.10.2023 12:28 18,1 C 18,9 C 14,4 C 91 % 1014,9 hPa 0,0 l/m 0 min 0 min 191 W/m 9,7 km/h (2 Bft) 100,00 %
12.10.2023 12:30 18,2 C 18,9 C 14,4 C 91 % 1014,8 hPa 0,0 l/m 0 min 0 min 193 W/m 6,4 km/h (2 Bft) 100,00 %
12.10.2023 12:32 18,2 C 18,9 C 14,4 C 91 % 1014,8 hPa 0,0 l/m 0 min 0 min 191 W/m 6,4 km/h (2 Bft) 97,87 %
12.10.2023 12:34 18,2 C 18,9 C 14,4 C 90 % 1014,9 hPa 0,0 l/m 0 min 0 min 186 W/m 6,4 km/h (2 Bft) 97,83 %
12.10.2023 12:36 18,3 C 18,9 C 14,4 C 90 % 1014,9 hPa 0,0 l/m 0 min 0 min 182 W/m 3,2 km/h (1 Bft) 95,74 %
12.10.2023 12:38 18,3 C 18,9 C 14,4 C 90 % 1014,8 hPa 0,0 l/m 0 min 0 min 174 W/m 3,2 km/h (1 Bft) 97,87 %
12.10.2023 12:40 18,3 C 18,9 C 14,4 C 90 % 1014,8 hPa 0,0 l/m 0 min 0 min 162 W/m 6,4 km/h (2 Bft) 97,87 %
12.10.2023 12:42 18,3 C 18,3 C 14,4 C 90 % 1014,8 hPa 0,0 l/m 0 min 0 min 147 W/m 6,4 km/h (2 Bft) 97,87 %
12.10.2023 12:44 18,4 C 18,3 C 14,4 C 89 % 1014,8 hPa 0,0 l/m 0 min 0 min 137 W/m 9,7 km/h (2 Bft) 97,87 %
12.10.2023 12:46 18,4 C 18,3 C 14,4 C 89 % 1014,8 hPa 0,0 l/m 0 min 0 min 135 W/m 6,4 km/h (2 Bft) 95,74 %
12.10.2023 12:48 18,4 C 18,3 C 14,4 C 89 % 1014,8 hPa 0,0 l/m 0 min 0 min 137 W/m 9,7 km/h (2 Bft) 97,83 %
12.10.2023 12:50 18,4 C 18,3 C 14,4 C 89 % 1014,7 hPa 0,0 l/m 0 min 0 min 137 W/m 9,7 km/h (2 Bft) 97,87 %
12.10.2023 12:52 18,4 C 18,3 C 14,4 C 88 % 1014,8 hPa 0,0 l/m 0 min 0 min 132 W/m 6,4 km/h (2 Bft) 97,87 %
12.10.2023 12:54 18,4 C 18,3 C 14,4 C 88 % 1014,7 hPa 0,0 l/m 0 min 0 min 128 W/m 22,5 km/h (4 Bft) 95,00 %
12.10.2023 12:56 18,4 C 18,3 C 14,4 C 87 % 1014,7 hPa 0,0 l/m 0 min 0 min 129 W/m 12,9 km/h (3 Bft) 97,87 %
12.10.2023 12:58 18,4 C 18,3 C 14,4 C 87 % 1014,6 hPa 0,0 l/m 0 min 0 min 134 W/m 9,7 km/h (2 Bft) 95,65 %
12.10.2023 13:00 18,4 C 18,3 C 14,4 C 87 % 1014,6 hPa 0,0 l/m 0 min 0 min 134 W/m 6,4 km/h (2 Bft) 97,87 %
12.10.2023 13:02 18,5 C 18,3 C 14,4 C 87 % 1014,5 hPa 0,0 l/m 0 min 0 min 132 W/m 6,4 km/h (2 Bft) 97,87 %
12.10.2023 13:04 18,5 C 18,3 C 14,4 C 87 % 1014,5 hPa 0,0 l/m 0 min 0 min 135 W/m 9,7 km/h (2 Bft) 97,67 %
12.10.2023 13:06 18,5 C 18,3 C 14,4 C 87 % 1014,5 hPa 0,0 l/m 0 min 0 min 139 W/m 6,4 km/h (2 Bft) 97,87 %
12.10.2023 13:08 18,5 C 18,3 C 14,4 C 87 % 1014,5 hPa 0,0 l/m 0 min 0 min 143 W/m 3,2 km/h (1 Bft) 97,87 %
12.10.2023 13:10 18,6 C 18,3 C 14,4 C 87 % 1014,5 hPa 0,0 l/m 0 min 0 min 139 W/m 3,2 km/h (1 Bft) 97,87 %
12.10.2023 13:12 18,6 C 18,3 C 14,4 C 87 % 1014,5 hPa 0,0 l/m 0 min 0 min 128 W/m 16,1 km/h (3 Bft) 97,87 %
12.10.2023 13:14 18,6 C 18,3 C 14,4 C 87 % 1014,5 hPa 0,0 l/m 0 min 0 min 120 W/m 6,4 km/h (2 Bft) 97,83 %
12.10.2023 13:16 18,6 C 18,3 C 14,4 C 87 % 1014,4 hPa 0,0 l/m 0 min 0 min 107 W/m 6,4 km/h (2 Bft) 95,74 %
12.10.2023 13:18 18,6 C 18,3 C 14,4 C 87 % 1014,4 hPa 0,0 l/m 0 min 0 min 97 W/m 3,2 km/h (1 Bft) 97,87 %
12.10.2023 13:20 18,6 C 18,3 C 14,4 C 87 % 1014,5 hPa 0,0 l/m 0 min 0 min 96 W/m 6,4 km/h (2 Bft) 97,87 %
12.10.2023 13:22 18,6 C 18,3 C 13,9 C 86 % 1014,5 hPa 0,0 l/m 0 min 0 min 98 W/m 3,2 km/h (1 Bft) 100,00 %
12.10.2023 13:24 18,6 C 18,3 C 13,9 C 87 % 1014,5 hPa 0,0 l/m 0 min 0 min 95 W/m 3,2 km/h (1 Bft) 100,00 %
12.10.2023 13:26 18,6 C 18,3 C 13,9 C 87 % 1014,4 hPa 0,0 l/m 0 min 0 min 97 W/m 3,2 km/h (1 Bft) 100,00 %
12.10.2023 13:28 18,6 C 18,3 C 13,9 C 87 % 1014,4 hPa 0,0 l/m 0 min 0 min 106 W/m 6,4 km/h (2 Bft) 100,00 %
12.10.2023 13:30 18,7 C 18,3 C 14,4 C 87 % 1014,3 hPa 0,0 l/m 0 min 0 min 121 W/m 9,7 km/h (2 Bft) 95,65 %
12.10.2023 13:32 18,7 C 18,3 C 14,4 C 87 % 1014,4 hPa 0,0 l/m 0 min 0 min 120 W/m 12,9 km/h (3 Bft) 100,00 %
12.10.2023 13:34 18,7 C 18,3 C 14,4 C 87 % 1014,4 hPa 0,0 l/m 0 min 0 min 104 W/m 12,9 km/h (3 Bft) 100,00 %
12.10.2023 13:36 18,7 C 18,3 C 14,4 C 87 % 1014,4 hPa 0,0 l/m 0 min 0 min 88 W/m 12,9 km/h (3 Bft) 100,00 %
12.10.2023 13:38 18,7 C 18,3 C 14,4 C 87 % 1014,4 hPa 0,0 l/m 0 min 0 min 93 W/m 12,9 km/h (3 Bft) 100,00 %
12.10.2023 13:40 18,7 C 18,3 C 14,4 C 86 % 1014,3 hPa 0,0 l/m 0 min 0 min 106 W/m 6,4 km/h (2 Bft) 100,00 %
12.10.2023 13:42 18,7 C 18,3 C 14,4 C 86 % 1014,2 hPa 0,0 l/m 0 min 0 min 112 W/m 12,9 km/h (3 Bft) 97,87 %
12.10.2023 13:44 18,7 C 18,3 C 14,4 C 86 % 1014,1 hPa 0,0 l/m 0 min 0 min 110 W/m 12,9 km/h (3 Bft) 95,65 %
12.10.2023 13:46 18,6 C 18,3 C 14,4 C 86 % 1014,0 hPa 0,0 l/m 0 min 0 min 101 W/m 12,9 km/h (3 Bft) 95,74 %
12.10.2023 13:48 18,6 C 18,3 C 13,9 C 85 % 1013,9 hPa 0,0 l/m 0 min 0 min 92 W/m 9,7 km/h (2 Bft) 95,74 %
12.10.2023 13:50 18,6 C 18,3 C 13,9 C 85 % 1013,9 hPa 0,0 l/m 0 min 0 min 90 W/m 3,2 km/h (1 Bft) 95,74 %
12.10.2023 13:52 18,6 C 18,3 C 13,9 C 85 % 1014,0 hPa 0,0 l/m 0 min 0 min 95 W/m 12,9 km/h (3 Bft) 93,62 %
12.10.2023 13:54 18,6 C 18,3 C 13,9 C 85 % 1014,0 hPa 0,0 l/m 0 min 0 min 99 W/m 9,7 km/h (2 Bft) 96,55 %
12.10.2023 13:56 18,6 C 18,3 C 13,9 C 85 % 1014,0 hPa 0,0 l/m 0 min 0 min 99 W/m 3,2 km/h (1 Bft) 89,36 %
12.10.2023 13:58 18,6 C 18,3 C 13,9 C 85 % 1014,0 hPa 0,0 l/m 0 min 0 min 95 W/m 6,4 km/h (2 Bft) 93,62 %
12.10.2023 14:00 18,6 C 18,3 C 13,9 C 85 % 1014,0 hPa 0,0 l/m 0 min 0 min 96 W/m 19,3 km/h (3 Bft) 95,83 %
12.10.2023 14:02 18,6 C 18,3 C 13,9 C 85 % 1014,0 hPa 0,0 l/m 0 min 0 min 103 W/m 9,7 km/h (2 Bft) 95,56 %
12.10.2023 14:04 18,6 C 18,3 C 13,9 C 85 % 1014,1 hPa 0,0 l/m 0 min 0 min 109 W/m 6,4 km/h (2 Bft) 95,92 %
12.10.2023 14:10 18,6 C 17,8 C 13,3 C 85 % 1014,2 hPa 0,0 l/m 0 min 5 min 120 W/m 19,3 km/h (3 Bft) 95,56 %
12.10.2023 14:12 18,6 C 17,8 C 13,3 C 86 % 1014,2 hPa 0,0 l/m 0 min 0 min 122 W/m 12,9 km/h (3 Bft) 95,74 %
12.10.2023 14:14 18,6 C 17,8 C 12,8 C 86 % 1014,1 hPa 0,0 l/m 0 min 0 min 117 W/m 9,7 km/h (2 Bft) 93,62 %
12.10.2023 14:16 18,6 C 17,8 C 12,8 C 86 % 1014,1 hPa 0,0 l/m 0 min 0 min 118 W/m 22,5 km/h (4 Bft) 95,65 %
12.10.2023 14:18 18,6 C 18,3 C 12,8 C 86 % 1014,1 hPa 0,0 l/m 0 min 0 min 133 W/m 12,9 km/h (3 Bft) 95,74 %
12.10.2023 14:20 18,6 C 18,3 C 12,8 C 87 % 1014,1 hPa 0,0 l/m 0 min 0 min 151 W/m 6,4 km/h (2 Bft) 97,87 %
12.10.2023 14:22 18,6 C 18,3 C 13,3 C 87 % 1014,0 hPa 0,0 l/m 0 min 0 min 142 W/m 3,2 km/h (1 Bft) 97,87 %
12.10.2023 14:24 18,6 C 18,3 C 13,3 C 87 % 1014,1 hPa 0,0 l/m 0 min 0 min 131 W/m 12,9 km/h (3 Bft) 97,87 %
12.10.2023 14:26 18,6 C 18,3 C 13,3 C 87 % 1014,0 hPa 0,0 l/m 0 min 0 min 125 W/m 12,9 km/h (3 Bft) 97,87 %
12.10.2023 14:28 18,5 C 18,3 C 13,3 C 86 % 1014,0 hPa 0,0 l/m 0 min 0 min 129 W/m 12,9 km/h (3 Bft) 97,87 %
12.10.2023 14:30 18,5 C 18,3 C 13,3 C 86 % 1014,0 hPa 0,0 l/m 0 min 0 min 145 W/m 9,7 km/h (2 Bft) 97,87 %
12.10.2023 14:32 18,5 C 18,3 C 13,3 C 87 % 1014,0 hPa 0,0 l/m 0 min 0 min 168 W/m 6,4 km/h (2 Bft) 95,65 %
12.10.2023 14:34 18,5 C 18,3 C 13,9 C 87 % 1013,9 hPa 0,0 l/m 0 min 2 min 177 W/m 12,9 km/h (3 Bft) 100,00 %
12.10.2023 14:36 18,5 C 18,3 C 13,9 C 86 % 1013,9 hPa 0,0 l/m 0 min 0 min 170 W/m 16,1 km/h (3 Bft) 100,00 %
12.10.2023 14:38 18,5 C 18,3 C 13,9 C 86 % 1014,0 hPa 0,0 l/m 0 min 0 min 153 W/m 12,9 km/h (3 Bft) 97,87 %
12.10.2023 14:40 18,5 C 18,3 C 14,4 C 87 % 1014,0 hPa 0,0 l/m 0 min 0 min 141 W/m 12,9 km/h (3 Bft) 100,00 %
12.10.2023 14:42 18,6 C 18,3 C 14,4 C 86 % 1013,9 hPa 0,0 l/m 0 min 0 min 145 W/m 6,4 km/h (2 Bft) 100,00 %
12.10.2023 14:44 18,5 C 18,3 C 14,4 C 87 % 1013,9 hPa 0,0 l/m 0 min 0 min 148 W/m 9,7 km/h (2 Bft) 100,00 %
12.10.2023 14:46 18,6 C 18,3 C 14,4 C 87 % 1013,9 hPa 0,0 l/m 0 min 0 min 141 W/m 6,4 km/h (2 Bft) 100,00 %
12.10.2023 14:48 18,6 C 18,3 C 14,4 C 87 % 1013,9 hPa 0,0 l/m 0 min 0 min 139 W/m 6,4 km/h (2 Bft) 97,87 %
12.10.2023 14:50 18,6 C 18,3 C 14,4 C 87 % 1013,8 hPa 0,0 l/m 0 min 0 min 138 W/m 6,4 km/h (2 Bft) 100,00 %
12.10.2023 14:52 18,6 C 18,3 C 14,4 C 86 % 1013,9 hPa 0,0 l/m 0 min 0 min 136 W/m 12,9 km/h (3 Bft) 100,00 %
12.10.2023 14:54 18,6 C 18,3 C 14,4 C 86 % 1013,9 hPa 0,0 l/m 0 min 0 min 127 W/m 6,4 km/h (2 Bft) 97,87 %
12.10.2023 14:56 18,6 C 18,3 C 14,4 C 86 % 1014,1 hPa 0,0 l/m 0 min 0 min 118 W/m 19,3 km/h (3 Bft) 100,00 %
12.10.2023 14:58 18,5 C 18,3 C 14,4 C 85 % 1014,1 hPa 0,0 l/m 0 min 0 min 110 W/m 22,5 km/h (4 Bft) 97,87 %
12.10.2023 15:00 18,5 C 17,8 C 14,4 C 85 % 1014,1 hPa 0,0 l/m 0 min 0 min 100 W/m 29,0 km/h (5 Bft) 100,00 %
12.10.2023 15:02 18,5 C 17,8 C 14,4 C 85 % 1014,0 hPa 0,0 l/m 0 min 0 min 96 W/m 22,5 km/h (4 Bft) 100,00 %
12.10.2023 15:04 18,4 C 17,8 C 13,9 C 85 % 1014,0 hPa 0,0 l/m 0 min 0 min 87 W/m 16,1 km/h (3 Bft) 100,00 %
12.10.2023 15:06 18,4 C 17,8 C 13,9 C 85 % 1014,0 hPa 0,0 l/m 0 min 0 min 78 W/m 16,1 km/h (3 Bft) 100,00 %
12.10.2023 15:08 18,4 C 17,8 C 13,9 C 85 % 1014,1 hPa 0,0 l/m 0 min 0 min 72 W/m 16,1 km/h (3 Bft) 100,00 %
12.10.2023 15:10 18,4 C 17,8 C 13,9 C 85 % 1014,1 hPa 0,0 l/m 0 min 0 min 66 W/m 16,1 km/h (3 Bft) 100,00 %
12.10.2023 15:12 18,3 C 17,8 C 13,9 C 85 % 1014,1 hPa 0,0 l/m 0 min 0 min 73 W/m 12,9 km/h (3 Bft) 100,00 %
12.10.2023 15:14 18,3 C 17,8 C 13,9 C 85 % 1014,1 hPa 0,0 l/m 0 min 0 min 83 W/m 16,1 km/h (3 Bft) 100,00 %
12.10.2023 15:16 18,4 C 18,3 C 13,9 C 86 % 1014,1 hPa 0,0 l/m 0 min 0 min 96 W/m 12,9 km/h (3 Bft) 100,00 %
12.10.2023 15:18 18,4 C 18,3 C 14,4 C 86 % 1014,1 hPa 0,0 l/m 0 min 0 min 102 W/m 12,9 km/h (3 Bft) 97,83 %
12.10.2023 15:20 18,5 C 18,3 C 14,4 C 86 % 1014,1 hPa 0,0 l/m 0 min 0 min 90 W/m 6,4 km/h (2 Bft) 100,00 %
12.10.2023 15:22 18,5 C 18,3 C 14,4 C 86 % 1014,1 hPa 0,0 l/m 0 min 0 min 86 W/m 9,7 km/h (2 Bft) 100,00 %
12.10.2023 15:24 18,6 C 18,3 C 14,4 C 86 % 1014,1 hPa 0,0 l/m 0 min 0 min 86 W/m 9,7 km/h (2 Bft) 100,00 %
12.10.2023 15:26 18,6 C 18,3 C 14,4 C 86 % 1014,1 hPa 0,0 l/m 0 min 0 min 93 W/m 16,1 km/h (3 Bft) 97,87 %
12.10.2023 15:28 18,6 C 18,3 C 14,4 C 85 % 1014,0 hPa 0,0 l/m 0 min 0 min 100 W/m 12,9 km/h (3 Bft) 100,00 %
12.10.2023 15:30 18,6 C 18,3 C 14,4 C 85 % 1014,0 hPa 0,0 l/m 0 min 0 min 98 W/m 22,5 km/h (4 Bft) 100,00 %
12.10.2023 15:32 18,6 C 18,3 C 14,4 C 86 % 1013,9 hPa 0,0 l/m 0 min 0 min 90 W/m 6,4 km/h (2 Bft) 100,00 %
12.10.2023 15:34 18,7 C 18,3 C 14,4 C 86 % 1013,9 hPa 0,0 l/m 0 min 0 min 81 W/m 19,3 km/h (3 Bft) 97,83 %
12.10.2023 15:36 18,6 C 18,3 C 14,4 C 85 % 1013,8 hPa 0,0 l/m 0 min 0 min 78 W/m 12,9 km/h (3 Bft) 97,87 %
12.10.2023 15:38 18,6 C 18,3 C 14,4 C 85 % 1013,9 hPa 0,0 l/m 0 min 0 min 77 W/m 12,9 km/h (3 Bft) 97,87 %
12.10.2023 15:40 18,6 C 18,3 C 14,4 C 86 % 1013,8 hPa 0,0 l/m 0 min 0 min 71 W/m 19,3 km/h (3 Bft) 97,87 %
12.10.2023 15:42 18,6 C 18,3 C 14,4 C 85 % 1013,9 hPa 0,0 l/m 0 min 0 min 69 W/m 12,9 km/h (3 Bft) 97,87 %
12.10.2023 15:44 18,7 C 18,3 C 14,4 C 86 % 1013,8 hPa 0,0 l/m 0 min 0 min 72 W/m 16,1 km/h (3 Bft) 95,74 %
12.10.2023 15:46 18,6 C 18,3 C 14,4 C 85 % 1013,8 hPa 0,0 l/m 0 min 0 min 71 W/m 9,7 km/h (2 Bft) 95,74 %
12.10.2023 15:48 18,7 C 17,8 C 14,4 C 86 % 1013,8 hPa 0,0 l/m 0 min 0 min 64 W/m 6,4 km/h (2 Bft) 93,48 %
12.10.2023 15:50 18,7 C 18,3 C 14,4 C 86 % 1013,8 hPa 0,0 l/m 0 min 0 min 55 W/m 3,2 km/h (1 Bft) 89,36 %
12.10.2023 15:52 18,6 C 18,3 C 14,4 C 86 % 1014,0 hPa 0,0 l/m 0 min 0 min 52 W/m 6,4 km/h (2 Bft) 93,62 %
12.10.2023 15:54 18,6 C 18,3 C 13,9 C 86 % 1013,9 hPa 0,0 l/m 0 min 0 min 53 W/m 12,9 km/h (3 Bft) 100,00 %
12.10.2023 15:56 18,6 C 17,8 C 13,9 C 86 % 1013,9 hPa 0,2 l/m 0 min 0 min 56 W/m 22,5 km/h (4 Bft) 90,57 %
12.10.2023 15:58 18,6 C 17,8 C 13,9 C 86 % 1013,9 hPa 0,0 l/m 0 min 0 min 62 W/m 12,9 km/h (3 Bft) 96,00 %
12.10.2023 16:00 18,6 C 18,3 C 14,4 C 86 % 1013,9 hPa 0,0 l/m 0 min 0 min 70 W/m 16,1 km/h (3 Bft) 97,87 %
12.10.2023 16:02 18,6 C 18,3 C 14,4 C 86 % 1013,9 hPa 0,0 l/m 0 min 0 min 77 W/m 25,7 km/h (4 Bft) 97,87 %
12.10.2023 16:04 18,6 C 18,3 C 14,4 C 86 % 1013,8 hPa 0,0 l/m 0 min 0 min 73 W/m 25,7 km/h (4 Bft) 95,65 %
12.10.2023 16:08 18,5 C 17,8 C 14,4 C 85 % 1013,7 hPa 0,0 l/m 0 min 0 min 69 W/m 25,7 km/h (4 Bft) 95,74 %
12.10.2023 16:09 18,4 C 17,8 C 14,4 C 85 % 1013,7 hPa 0,0 l/m 0 min 0 min 61 W/m 22,5 km/h (4 Bft) 95,83 %
12.10.2023 16:10 18,4 C 17,8 C 14,4 C 85 % 1013,7 hPa 0,0 l/m 0 min 0 min 63 W/m 25,7 km/h (4 Bft) 97,37 %
12.10.2023 16:14 18,3 C 17,8 C 13,9 C 85 % 1013,7 hPa 0,0 l/m 0 min 0 min 64 W/m 12,9 km/h (3 Bft) 95,83 %
12.10.2023 16:16 18,3 C 17,8 C 13,9 C 85 % 1013,6 hPa 0,0 l/m 0 min 0 min 69 W/m 16,1 km/h (3 Bft) 97,87 %
12.10.2023 16:18 18,3 C 17,8 C 13,9 C 85 % 1013,6 hPa 0,0 l/m 0 min 0 min 66 W/m 6,4 km/h (2 Bft) 95,65 %
12.10.2023 16:20 18,3 C 17,8 C 13,9 C 85 % 1013,7 hPa 0,0 l/m 0 min 0 min 60 W/m 16,1 km/h (3 Bft) 97,87 %
12.10.2023 16:22 18,3 C 17,8 C 13,9 C 85 % 1013,7 hPa 0,0 l/m 0 min 0 min 62 W/m 19,3 km/h (3 Bft) 97,87 %
12.10.2023 16:24 18,3 C 17,8 C 13,9 C 85 % 1013,6 hPa 0,0 l/m 0 min 0 min 73 W/m 19,3 km/h (3 Bft) 97,87 %
12.10.2023 16:26 18,2 C 17,8 C 13,9 C 85 % 1013,8 hPa 0,0 l/m 0 min 0 min 83 W/m 22,5 km/h (4 Bft) 97,87 %
12.10.2023 16:28 18,2 C 17,8 C 13,9 C 85 % 1013,8 hPa 0,0 l/m 0 min 0 min 58 W/m 19,3 km/h (3 Bft) 100,00 %
12.10.2023 16:30 18,2 C 17,8 C 13,9 C 85 % 1014,0 hPa 0,0 l/m 0 min 0 min 41 W/m 9,7 km/h (2 Bft) 97,87 %
12.10.2023 16:32 18,2 C 17,8 C 13,9 C 85 % 1014,0 hPa 0,0 l/m 0 min 0 min 38 W/m 16,1 km/h (3 Bft) 97,87 %
12.10.2023 16:34 18,2 C 17,8 C 13,9 C 85 % 1013,9 hPa 0,0 l/m 0 min 0 min 35 W/m 22,5 km/h (4 Bft) 95,65 %
12.10.2023 16:36 18,2 C 17,8 C 13,9 C 85 % 1013,9 hPa 0,0 l/m 0 min 0 min 39 W/m 12,9 km/h (3 Bft) 95,74 %
12.10.2023 16:38 18,2 C 17,8 C 13,9 C 86 % 1013,9 hPa 0,0 l/m 0 min 0 min 45 W/m 12,9 km/h (3 Bft) 97,87 %
12.10.2023 16:40 18,2 C 17,2 C 13,9 C 86 % 1013,9 hPa 0,0 l/m 0 min 0 min 54 W/m 12,9 km/h (3 Bft) 97,87 %
12.10.2023 16:42 18,2 C 17,8 C 13,9 C 86 % 1013,9 hPa 0,0 l/m 0 min 0 min 61 W/m 12,9 km/h (3 Bft) 93,62 %
12.10.2023 16:44 18,2 C 17,8 C 13,9 C 86 % 1013,8 hPa 0,0 l/m 0 min 0 min 68 W/m 12,9 km/h (3 Bft) 97,87 %
12.10.2023 16:46 18,2 C 17,8 C 13,9 C 86 % 1013,7 hPa 0,0 l/m 0 min 0 min 72 W/m 6,4 km/h (2 Bft) 97,87 %
12.10.2023 16:48 18,2 C 17,8 C 13,9 C 86 % 1013,8 hPa 0,0 l/m 0 min 0 min 67 W/m 12,9 km/h (3 Bft) 97,83 %
12.10.2023 16:50 18,2 C 17,8 C 13,9 C 86 % 1013,7 hPa 0,0 l/m 0 min 0 min 65 W/m 9,7 km/h (2 Bft) 97,87 %
12.10.2023 16:52 18,2 C 17,8 C 13,9 C 86 % 1013,7 hPa 0,0 l/m 0 min 0 min 70 W/m 12,9 km/h (3 Bft) 93,62 %
12.10.2023 16:54 18,2 C 17,8 C 13,9 C 86 % 1013,7 hPa 0,0 l/m 0 min 0 min 76 W/m 6,4 km/h (2 Bft) 98,04 %
12.10.2023 16:56 18,2 C 17,8 C 13,9 C 86 % 1013,7 hPa 0,0 l/m 0 min 0 min 73 W/m 12,9 km/h (3 Bft) 97,87 %
12.10.2023 16:58 18,1 C 17,8 C 13,9 C 86 % 1013,6 hPa 0,0 l/m 0 min 0 min 70 W/m 25,7 km/h (4 Bft) 97,87 %
12.10.2023 17:00 18,1 C 17,8 C 13,9 C 87 % 1013,6 hPa 0,0 l/m 0 min 0 min 74 W/m 22,5 km/h (4 Bft) 95,74 %
12.10.2023 17:02 18,1 C 17,8 C 13,9 C 87 % 1013,5 hPa 0,0 l/m 0 min 0 min 76 W/m 16,1 km/h (3 Bft) 97,87 %
12.10.2023 17:04 18,1 C 17,8 C 13,9 C 87 % 1013,5 hPa 0,0 l/m 0 min 0 min 74 W/m 16,1 km/h (3 Bft) 97,44 %
12.10.2023 17:08 18,1 C 17,2 C 13,9 C 86 % 1013,7 hPa 0,0 l/m 0 min 0 min 57 W/m 19,3 km/h (3 Bft) 97,92 %
12.10.2023 17:09 18,1 C 17,2 C 13,9 C 86 % 1013,7 hPa 0,0 l/m 0 min 0 min 45 W/m 29,0 km/h (5 Bft) 91,67 %
12.10.2023 17:10 18,1 C 17,2 C 13,9 C 86 % 1013,7 hPa 0,0 l/m 0 min 0 min 49 W/m 29,0 km/h (5 Bft) 99,12 %
12.10.2023 17:14 18,0 C 17,2 C 13,9 C 86 % 1013,7 hPa 0,0 l/m 0 min 0 min 37 W/m 6,4 km/h (2 Bft) 97,87 %
12.10.2023 17:16 18,0 C 17,2 C 13,9 C 87 % 1013,6 hPa 0,0 l/m 0 min 0 min 40 W/m 16,1 km/h (3 Bft) 100,00 %
12.10.2023 17:18 18,0 C 17,2 C 13,9 C 87 % 1013,6 hPa 0,0 l/m 0 min 0 min 42 W/m 6,4 km/h (2 Bft) 100,00 %
12.10.2023 17:20 18,0 C 17,2 C 13,9 C 87 % 1013,6 hPa 0,0 l/m 0 min 0 min 42 W/m 16,1 km/h (3 Bft) 97,87 %
12.10.2023 17:22 17,9 C 17,2 C 13,9 C 87 % 1013,5 hPa 0,0 l/m 0 min 0 min 43 W/m 19,3 km/h (3 Bft) 100,00 %
12.10.2023 17:24 17,9 C 17,2 C 13,9 C 87 % 1013,5 hPa 0,0 l/m 0 min 0 min 46 W/m 16,1 km/h (3 Bft) 97,87 %
12.10.2023 17:26 17,9 C 17,2 C 13,9 C 87 % 1013,5 hPa 0,0 l/m 0 min 0 min 43 W/m 9,7 km/h (2 Bft) 97,87 %
12.10.2023 17:28 17,9 C 17,2 C 13,9 C 87 % 1013,5 hPa 0,0 l/m 0 min 0 min 40 W/m 22,5 km/h (4 Bft) 95,74 %
12.10.2023 17:30 17,9 C 17,2 C 13,9 C 87 % 1013,5 hPa 0,0 l/m 0 min 0 min 37 W/m 19,3 km/h (3 Bft) 100,00 %
12.10.2023 17:32 17,9 C 17,2 C 13,9 C 87 % 1013,5 hPa 0,0 l/m 0 min 0 min 34 W/m 16,1 km/h (3 Bft) 97,56 %
12.10.2023 17:34 17,9 C 17,2 C 13,9 C 87 % 1013,6 hPa 0,0 l/m 0 min 0 min 31 W/m 16,1 km/h (3 Bft) 100,00 %
12.10.2023 17:36 17,9 C 17,2 C 13,3 C 87 % 1013,5 hPa 0,0 l/m 0 min 0 min 31 W/m 12,9 km/h (3 Bft) 100,00 %
12.10.2023 17:38 17,9 C 17,2 C 13,3 C 87 % 1013,6 hPa 0,0 l/m 0 min 0 min 26 W/m 6,4 km/h (2 Bft) 97,87 %
12.10.2023 17:40 17,9 C 17,2 C 13,3 C 87 % 1013,6 hPa 0,0 l/m 0 min 0 min 22 W/m 6,4 km/h (2 Bft) 97,87 %
12.10.2023 17:42 17,9 C 17,2 C 13,3 C 87 % 1013,5 hPa 0,0 l/m 0 min 0 min 23 W/m 12,9 km/h (3 Bft) 97,87 %
12.10.2023 17:44 17,9 C 17,2 C 13,3 C 87 % 1013,5 hPa 0,0 l/m 0 min 0 min 24 W/m 12,9 km/h (3 Bft) 93,62 %
12.10.2023 17:46 17,9 C 17,2 C 13,3 C 87 % 1013,5 hPa 0,0 l/m 0 min 0 min 24 W/m 12,9 km/h (3 Bft) 97,87 %
12.10.2023 17:48 17,9 C 17,2 C 13,3 C 87 % 1013,4 hPa 0,0 l/m 0 min 0 min 23 W/m 12,9 km/h (3 Bft) 97,87 %
12.10.2023 17:50 17,8 C 17,2 C 13,3 C 87 % 1013,5 hPa 0,0 l/m 0 min 0 min 23 W/m 12,9 km/h (3 Bft) 95,74 %
12.10.2023 17:52 17,8 C 17,2 C 13,3 C 87 % 1013,6 hPa 0,0 l/m 0 min 0 min 21 W/m 19,3 km/h (3 Bft) 96,15 %
12.10.2023 17:54 17,8 C 17,2 C 13,3 C 87 % 1013,7 hPa 0,0 l/m 0 min 2 min 16 W/m 19,3 km/h (3 Bft) 97,96 %
12.10.2023 17:56 17,8 C 17,2 C 12,8 C 87 % 1013,6 hPa 0,0 l/m 0 min 2 min 17 W/m 16,1 km/h (3 Bft) 97,87 %
12.10.2023 17:58 17,8 C 16,7 C 12,8 C 88 % 1013,6 hPa 0,0 l/m 0 min 2 min 22 W/m 19,3 km/h (3 Bft) 97,87 %
12.10.2023 18:00 17,8 C 16,7 C 12,2 C 88 % 1013,6 hPa 0,0 l/m 0 min 2 min 25 W/m 29,0 km/h (5 Bft) 95,74 %
12.10.2023 18:02 17,8 C 16,7 C 12,2 C 89 % 1013,6 hPa 0,0 l/m 0 min 2 min 24 W/m 16,1 km/h (3 Bft) 97,87 %
12.10.2023 18:04 17,7 C 16,7 C 12,2 C 89 % 1013,6 hPa 0,0 l/m 0 min 0 min 24 W/m 16,1 km/h (3 Bft) 100,00 %
12.10.2023 18:08 17,6 C 16,1 C 11,7 C 90 % 1013,7 hPa 0,2 l/m 0 min 0 min 17 W/m 25,7 km/h (4 Bft) 97,85 %
12.10.2023 18:10 17,5 C 16,1 C 11,7 C 90 % 1013,7 hPa 0,0 l/m 0 min 0 min 15 W/m 19,3 km/h (3 Bft) 95,74 %
12.10.2023 18:12 17,4 C 16,1 C 11,7 C 90 % 1013,8 hPa 0,0 l/m 0 min 2 min 12 W/m 16,1 km/h (3 Bft) 100,00 %
12.10.2023 18:16 17,3 C 16,1 C 11,7 C 91 % 1013,7 hPa 0,2 l/m 0 min 4 min 12 W/m 19,3 km/h (3 Bft) 98,94 %
12.10.2023 18:18 17,3 C 16,1 C 11,7 C 91 % 1013,7 hPa 0,0 l/m 0 min 0 min 13 W/m 16,1 km/h (3 Bft) 100,00 %
12.10.2023 18:20 17,2 C 15,6 C 11,7 C 92 % 1013,7 hPa 0,0 l/m 0 min 0 min 12 W/m 12,9 km/h (3 Bft) 100,00 %
12.10.2023 18:22 17,2 C 15,6 C 11,7 C 92 % 1013,7 hPa 0,0 l/m 0 min 0 min 9 W/m 12,9 km/h (3 Bft) 95,65 %
12.10.2023 18:24 17,1 C 15,6 C 11,7 C 92 % 1013,8 hPa 0,0 l/m 0 min 0 min 7 W/m 9,7 km/h (2 Bft) 100,00 %
12.10.2023 18:26 17,1 C 15,6 C 11,7 C 92 % 1013,8 hPa 0,0 l/m 0 min 0 min 6 W/m 16,1 km/h (3 Bft) 97,87 %
12.10.2023 18:28 17,1 C 15,6 C 11,7 C 93 % 1013,8 hPa 0,0 l/m 0 min 0 min 5 W/m 12,9 km/h (3 Bft) 97,87 %
12.10.2023 18:30 17,1 C 15,6 C 11,7 C 93 % 1013,8 hPa 0,0 l/m 0 min 0 min 0 W/m 16,1 km/h (3 Bft) 100,00 %
12.10.2023 18:32 17,0 C 15,6 C 11,7 C 93 % 1013,8 hPa 0,0 l/m 0 min 2 min 0 W/m 6,4 km/h (2 Bft) 97,87 %
12.10.2023 18:34 16,9 C 15,6 C 11,7 C 93 % 1013,8 hPa 0,0 l/m 0 min 0 min 0 W/m 16,1 km/h (3 Bft) 97,87 %
12.10.2023 18:36 16,9 C 15,6 C 11,7 C 93 % 1013,7 hPa 0,0 l/m 0 min 0 min 0 W/m 19,3 km/h (3 Bft) 97,83 %
12.10.2023 18:38 16,8 C 15,6 C 11,7 C 93 % 1013,8 hPa 0,0 l/m 0 min 0 min 0 W/m 19,3 km/h (3 Bft) 95,74 %
12.10.2023 18:40 16,8 C 15,6 C 11,7 C 93 % 1013,8 hPa 0,0 l/m 0 min 0 min 0 W/m 16,1 km/h (3 Bft) 95,74 %
12.10.2023 18:42 16,8 C 15,6 C 11,7 C 94 % 1013,8 hPa 0,0 l/m 0 min 0 min 0 W/m 16,1 km/h (3 Bft) 97,87 %
12.10.2023 18:44 16,8 C 15,6 C 11,7 C 94 % 1013,9 hPa 0,0 l/m 0 min 0 min 0 W/m 6,4 km/h (2 Bft) 95,74 %
12.10.2023 18:46 16,8 C 15,6 C 11,7 C 94 % 1013,8 hPa 0,0 l/m 0 min 0 min 0 W/m 9,7 km/h (2 Bft) 97,87 %
12.10.2023 18:48 16,7 C 15,6 C 11,7 C 94 % 1013,8 hPa 0,0 l/m 0 min 0 min 0 W/m 16,1 km/h (3 Bft) 97,87 %
12.10.2023 18:50 16,7 C 15,6 C 11,7 C 94 % 1013,8 hPa 0,0 l/m 0 min 0 min 0 W/m 16,1 km/h (3 Bft) 97,87 %
12.10.2023 18:52 16,7 C 15,6 C 11,7 C 94 % 1013,9 hPa 0,0 l/m 0 min 0 min 0 W/m 16,1 km/h (3 Bft) 97,83 %
12.10.2023 18:54 16,7 C 15,6 C 11,7 C 94 % 1013,9 hPa 0,0 l/m 0 min 0 min 0 W/m 12,9 km/h (3 Bft) 95,83 %
12.10.2023 18:56 16,6 C 15,6 C 11,7 C 94 % 1013,8 hPa 0,0 l/m 0 min 0 min 0 W/m 25,7 km/h (4 Bft) 97,87 %
12.10.2023 18:58 16,6 C 15,6 C 11,7 C 94 % 1013,8 hPa 0,0 l/m 0 min 0 min 0 W/m 12,9 km/h (3 Bft) 97,96 %
12.10.2023 19:00 16,6 C 15,6 C 11,7 C 94 % 1013,8 hPa 0,0 l/m 0 min 0 min 0 W/m 9,7 km/h (2 Bft) 97,87 %
12.10.2023 19:02 16,6 C 15,6 C 11,7 C 95 % 1013,9 hPa 0,0 l/m 0 min 0 min 0 W/m 12,9 km/h (3 Bft) 95,74 %
12.10.2023 19:04 16,6 C 15,6 C 11,7 C 95 % 1013,9 hPa 0,0 l/m 0 min 0 min 0 W/m 12,9 km/h (3 Bft) 98,00 %
12.10.2023 19:08 16,6 C 15,6 C 11,7 C 95 % 1014,0 hPa 0,0 l/m 0 min 0 min 0 W/m 22,5 km/h (4 Bft) 96,97 %
12.10.2023 19:09 16,6 C 15,6 C 11,7 C 95 % 1014,0 hPa 0,0 l/m 0 min 0 min 0 W/m 19,3 km/h (3 Bft) 100,00 %
12.10.2023 19:12 16,5 C 15,6 C 11,7 C 95 % 1014,0 hPa 0,2 l/m 0 min 3 min 0 W/m 16,1 km/h (3 Bft) 96,55 %
12.10.2023 19:14 16,5 C 15,6 C 11,7 C 95 % 1014,0 hPa 0,4 l/m 0 min 2 min 0 W/m 22,5 km/h (4 Bft) 95,74 %
12.10.2023 19:16 16,4 C 15,0 C 11,7 C 95 % 1014,0 hPa 0,0 l/m 0 min 2 min 0 W/m 16,1 km/h (3 Bft) 100,00 %
12.10.2023 19:20 16,4 C 15,0 C 11,7 C 95 % 1014,0 hPa 0,2 l/m 0 min 4 min 0 W/m 6,4 km/h (2 Bft) 97,14 %
12.10.2023 19:22 16,4 C 15,0 C 11,7 C 95 % 1014,0 hPa 0,0 l/m 0 min 2 min 0 W/m 12,9 km/h (3 Bft) 98,39 %
12.10.2023 19:24 16,4 C 15,0 C 11,7 C 96 % 1014,0 hPa 0,0 l/m 0 min 0 min 0 W/m 16,1 km/h (3 Bft) 95,35 %
12.10.2023 19:26 16,4 C 15,0 C 11,7 C 96 % 1014,0 hPa 0,0 l/m 0 min 0 min 0 W/m 19,3 km/h (3 Bft) 95,65 %
12.10.2023 19:28 16,4 C 15,0 C 11,7 C 96 % 1014,0 hPa 0,2 l/m 0 min 0 min 0 W/m 9,7 km/h (2 Bft) 93,62 %
12.10.2023 19:30 16,4 C 15,0 C 11,7 C 96 % 1014,0 hPa 0,0 l/m 0 min 2 min 0 W/m 12,9 km/h (3 Bft) 93,88 %
12.10.2023 19:32 16,4 C 15,0 C 11,7 C 96 % 1014,1 hPa 0,0 l/m 0 min 0 min 0 W/m 16,1 km/h (3 Bft) 93,62 %
12.10.2023 19:34 16,4 C 15,0 C 11,7 C 96 % 1014,1 hPa 0,0 l/m 0 min 0 min 0 W/m 3,2 km/h (1 Bft) 93,62 %
12.10.2023 19:36 16,4 C 15,0 C 11,7 C 96 % 1014,1 hPa 0,0 l/m 0 min 0 min 0 W/m 9,7 km/h (2 Bft) 93,62 %
12.10.2023 19:38 16,4 C 15,0 C 11,7 C 96 % 1014,1 hPa 0,0 l/m 0 min 0 min 0 W/m 9,7 km/h (2 Bft) 93,62 %
12.10.2023 19:40 16,4 C 15,0 C 11,7 C 96 % 1014,1 hPa 0,0 l/m 0 min 0 min 0 W/m 9,7 km/h (2 Bft) 95,65 %
12.10.2023 19:42 16,4 C 15,0 C 11,7 C 96 % 1014,1 hPa 0,0 l/m 0 min 0 min 0 W/m 6,4 km/h (2 Bft) 95,74 %
12.10.2023 19:44 16,4 C 15,0 C 11,7 C 96 % 1014,1 hPa 0,0 l/m 0 min 0 min 0 W/m 12,9 km/h (3 Bft) 93,62 %
12.10.2023 19:46 16,4 C 15,0 C 11,7 C 97 % 1014,1 hPa 0,0 l/m 0 min 0 min 0 W/m 9,7 km/h (2 Bft) 95,74 %
12.10.2023 19:48 16,4 C 15,0 C 11,7 C 97 % 1014,2 hPa 0,0 l/m 0 min 0 min 0 W/m 12,9 km/h (3 Bft) 95,74 %
12.10.2023 19:50 16,4 C 15,0 C 11,7 C 97 % 1014,1 hPa 0,0 l/m 0 min 0 min 0 W/m 9,7 km/h (2 Bft) 97,87 %
12.10.2023 19:52 16,4 C 15,0 C 11,7 C 97 % 1014,1 hPa 0,0 l/m 0 min 0 min 0 W/m 19,3 km/h (3 Bft) 95,74 %
12.10.2023 19:54 16,4 C 15,0 C 11,7 C 97 % 1014,0 hPa 0,0 l/m 0 min 0 min 0 W/m 22,5 km/h (4 Bft) 95,92 %
12.10.2023 19:56 16,4 C 15,0 C 11,7 C 97 % 1014,0 hPa 0,0 l/m 0 min 0 min 0 W/m 9,7 km/h (2 Bft) 91,49 %
12.10.2023 19:58 16,4 C 15,0 C 11,7 C 97 % 1014,0 hPa 0,0 l/m 0 min 0 min 0 W/m 9,7 km/h (2 Bft) 95,65 %
12.10.2023 20:00 16,4 C 15,0 C 11,7 C 97 % 1014,1 hPa 0,0 l/m 0 min 0 min 0 W/m 6,4 km/h (2 Bft) 97,87 %
12.10.2023 20:02 16,3 C 15,0 C 11,7 C 97 % 1014,0 hPa 0,0 l/m 0 min 0 min 0 W/m 9,7 km/h (2 Bft) 95,74 %
12.10.2023 20:04 16,4 C 15,0 C 11,7 C 97 % 1014,1 hPa 0,0 l/m 0 min 0 min 0 W/m 16,1 km/h (3 Bft) 98,04 %
12.10.2023 20:06 16,4 C 15,0 C 11,7 C 97 % 1014,1 hPa 0,0 l/m 0 min 0 min 0 W/m 12,9 km/h (3 Bft) 95,83 %
12.10.2023 20:08 16,4 C 15,6 C 11,7 C 97 % 1014,1 hPa 0,0 l/m 0 min 0 min 0 W/m 6,4 km/h (2 Bft) 94,29 %
12.10.2023 20:10 16,4 C 15,0 C 11,7 C 97 % 1014,0 hPa 0,0 l/m 0 min 0 min 0 W/m 16,1 km/h (3 Bft) 98,28 %
12.10.2023 20:12 16,4 C 15,0 C 11,7 C 97 % 1014,0 hPa 0,0 l/m 0 min 0 min 0 W/m 12,9 km/h (3 Bft) 100,00 %
12.10.2023 20:14 16,4 C 15,6 C 11,7 C 97 % 1014,0 hPa 0,0 l/m 0 min 0 min 0 W/m 19,3 km/h (3 Bft) 100,00 %
12.10.2023 20:16 16,4 C 15,6 C 11,7 C 97 % 1014,0 hPa 0,0 l/m 0 min 0 min 0 W/m 6,4 km/h (2 Bft) 100,00 %
12.10.2023 20:18 16,4 C 15,6 C 11,7 C 97 % 1013,9 hPa 0,0 l/m 0 min 0 min 0 W/m 12,9 km/h (3 Bft) 100,00 %
12.10.2023 20:20 16,4 C 15,6 C 11,7 C 97 % 1013,9 hPa 0,0 l/m 0 min 0 min 0 W/m 9,7 km/h (2 Bft) 97,87 %
12.10.2023 20:22 16,4 C 15,6 C 11,7 C 97 % 1013,9 hPa 0,0 l/m 0 min 0 min 0 W/m 12,9 km/h (3 Bft) 97,87 %
12.10.2023 20:24 16,3 C 15,6 C 11,7 C 97 % 1013,9 hPa 0,0 l/m 0 min 0 min 0 W/m 12,9 km/h (3 Bft) 100,00 %
12.10.2023 20:26 16,4 C 15,6 C 11,7 C 97 % 1014,0 hPa 0,0 l/m 0 min 0 min 0 W/m 19,3 km/h (3 Bft) 100,00 %
12.10.2023 20:28 16,4 C 15,6 C 11,7 C 97 % 1014,0 hPa 0,0 l/m 0 min 0 min 0 W/m 25,7 km/h (4 Bft) 97,87 %
12.10.2023 20:30 16,4 C 15,6 C 11,7 C 98 % 1013,9 hPa 0,0 l/m 0 min 0 min 0 W/m 12,9 km/h (3 Bft) 100,00 %
12.10.2023 20:32 16,4 C 15,6 C 11,7 C 98 % 1014,0 hPa 0,0 l/m 0 min 0 min 0 W/m 16,1 km/h (3 Bft) 97,87 %
12.10.2023 20:34 16,4 C 15,6 C 11,7 C 98 % 1013,9 hPa 0,0 l/m 0 min 0 min 0 W/m 12,9 km/h (3 Bft) 100,00 %
12.10.2023 20:36 16,4 C 15,6 C 11,7 C 98 % 1013,9 hPa 0,0 l/m 0 min 0 min 0 W/m 19,3 km/h (3 Bft) 100,00 %
12.10.2023 20:38 16,4 C 15,6 C 11,7 C 98 % 1014,0 hPa 0,0 l/m 0 min 0 min 0 W/m 16,1 km/h (3 Bft) 100,00 %
12.10.2023 20:40 16,4 C 15,6 C 11,7 C 98 % 1014,0 hPa 0,0 l/m 0 min 0 min 0 W/m 12,9 km/h (3 Bft) 100,00 %
12.10.2023 20:42 16,3 C 15,6 C 11,7 C 98 % 1014,0 hPa 0,0 l/m 0 min 0 min 0 W/m 16,1 km/h (3 Bft) 100,00 %
12.10.2023 20:44 16,3 C 15,6 C 11,7 C 98 % 1014,1 hPa 0,0 l/m 0 min 0 min 0 W/m 12,9 km/h (3 Bft) 100,00 %
12.10.2023 20:46 16,3 C 15,6 C 11,7 C 98 % 1014,0 hPa 0,0 l/m 0 min 0 min 0 W/m 12,9 km/h (3 Bft) 100,00 %
12.10.2023 20:48 16,3 C 15,6 C 11,7 C 98 % 1014,0 hPa 0,0 l/m 0 min 0 min 0 W/m 12,9 km/h (3 Bft) 97,87 %
12.10.2023 20:50 16,3 C 15,0 C 11,7 C 98 % 1014,0 hPa 0,0 l/m 0 min 0 min 0 W/m 12,9 km/h (3 Bft) 97,87 %
12.10.2023 20:52 16,3 C 15,0 C 11,7 C 98 % 1014,1 hPa 0,0 l/m 0 min 0 min 0 W/m 12,9 km/h (3 Bft) 100,00 %
12.10.2023 20:54 16,3 C 15,0 C 11,7 C 98 % 1014,1 hPa 0,0 l/m 0 min 0 min 0 W/m 9,7 km/h (2 Bft) 100,00 %
12.10.2023 20:56 16,3 C 15,0 C 11,7 C 98 % 1014,1 hPa 0,0 l/m 0 min 0 min 0 W/m 25,7 km/h (4 Bft) 100,00 %
12.10.2023 20:58 16,3 C 15,6 C 11,7 C 98 % 1014,1 hPa 0,0 l/m 0 min 0 min 0 W/m 9,7 km/h (2 Bft) 97,87 %
12.10.2023 21:00 16,3 C 15,6 C 11,7 C 98 % 1014,1 hPa 0,0 l/m 0 min 0 min 0 W/m 6,4 km/h (2 Bft) 100,00 %
12.10.2023 21:02 16,3 C 15,6 C 11,7 C 98 % 1014,2 hPa 0,0 l/m 0 min 0 min 0 W/m 9,7 km/h (2 Bft) 100,00 %
12.10.2023 21:04 16,3 C 15,6 C 11,7 C 98 % 1014,2 hPa 0,0 l/m 0 min 0 min 0 W/m 12,9 km/h (3 Bft) 100,00 %
12.10.2023 21:08 16,2 C 15,6 C 11,7 C 98 % 1014,1 hPa 0,0 l/m 0 min 0 min 0 W/m 9,7 km/h (2 Bft) 99,01 %
12.10.2023 21:09 16,3 C 15,0 C 11,7 C 98 % 1014,1 hPa 0,0 l/m 0 min 0 min 0 W/m 9,7 km/h (2 Bft) 95,83 %
12.10.2023 21:10 16,2 C 15,0 C 11,7 C 98 % 1014,1 hPa 0,0 l/m 0 min 0 min 0 W/m 25,7 km/h (4 Bft) 100,00 %
12.10.2023 21:14 16,3 C 15,6 C 11,7 C 98 % 1014,2 hPa 0,0 l/m 0 min 0 min 0 W/m 16,1 km/h (3 Bft) 97,83 %
12.10.2023 21:16 16,2 C 15,6 C 11,7 C 98 % 1014,1 hPa 0,0 l/m 0 min 0 min 0 W/m 9,7 km/h (2 Bft) 95,83 %
12.10.2023 21:18 16,2 C 15,6 C 11,7 C 98 % 1014,1 hPa 0,0 l/m 0 min 0 min 0 W/m 16,1 km/h (3 Bft) 97,87 %
12.10.2023 21:20 16,3 C 15,6 C 11,7 C 98 % 1014,1 hPa 0,0 l/m 0 min 0 min 0 W/m 12,9 km/h (3 Bft) 95,74 %
12.10.2023 21:22 16,3 C 15,6 C 11,7 C 98 % 1014,1 hPa 0,0 l/m 0 min 0 min 0 W/m 16,1 km/h (3 Bft) 93,62 %
12.10.2023 21:24 16,3 C 15,6 C 11,7 C 98 % 1014,1 hPa 0,0 l/m 0 min 0 min 0 W/m 9,7 km/h (2 Bft) 95,74 %
12.10.2023 21:26 16,3 C 15,6 C 11,7 C 98 % 1014,1 hPa 0,0 l/m 0 min 0 min 0 W/m 12,9 km/h (3 Bft) 95,74 %
12.10.2023 21:28 16,3 C 15,6 C 11,7 C 98 % 1014,1 hPa 0,0 l/m 0 min 0 min 0 W/m 12,9 km/h (3 Bft) 93,62 %
12.10.2023 21:30 16,3 C 15,6 C 11,7 C 98 % 1014,1 hPa 0,0 l/m 0 min 0 min 0 W/m 6,4 km/h (2 Bft) 95,65 %
12.10.2023 21:32 16,3 C 15,6 C 11,7 C 98 % 1014,1 hPa 0,0 l/m 0 min 0 min 0 W/m 6,4 km/h (2 Bft) 95,74 %
12.10.2023 21:34 16,3 C 15,6 C 11,7 C 98 % 1014,1 hPa 0,0 l/m 0 min 0 min 0 W/m 12,9 km/h (3 Bft) 95,74 %
12.10.2023 21:36 16,4 C 15,6 C 11,7 C 98 % 1014,1 hPa 0,0 l/m 0 min 0 min 0 W/m 12,9 km/h (3 Bft) 95,74 %
12.10.2023 21:38 16,4 C 15,6 C 11,7 C 98 % 1014,1 hPa 0,0 l/m 0 min 0 min 0 W/m 9,7 km/h (2 Bft) 95,74 %
12.10.2023 21:40 16,4 C 15,6 C 11,7 C 98 % 1014,1 hPa 0,0 l/m 0 min 0 min 0 W/m 16,1 km/h (3 Bft) 95,74 %
12.10.2023 21:42 16,4 C 15,6 C 12,2 C 98 % 1014,0 hPa 0,0 l/m 0 min 0 min 0 W/m 9,7 km/h (2 Bft) 95,74 %
12.10.2023 21:44 16,4 C 15,6 C 11,7 C 98 % 1014,1 hPa 0,0 l/m 0 min 0 min 0 W/m 19,3 km/h (3 Bft) 95,74 %
12.10.2023 21:46 16,4 C 15,6 C 12,2 C 98 % 1014,1 hPa 0,0 l/m 0 min 0 min 0 W/m 12,9 km/h (3 Bft) 95,65 %
12.10.2023 21:48 16,4 C 15,6 C 12,2 C 98 % 1014,0 hPa 0,0 l/m 0 min 0 min 0 W/m 12,9 km/h (3 Bft) 95,74 %
12.10.2023 21:50 16,5 C 15,6 C 12,2 C 98 % 1014,1 hPa 0,0 l/m 0 min 0 min 0 W/m 12,9 km/h (3 Bft) 93,62 %
12.10.2023 21:52 16,5 C 15,6 C 12,2 C 98 % 1014,1 hPa 0,0 l/m 0 min 0 min 0 W/m 12,9 km/h (3 Bft) 100,00 %
12.10.2023 21:54 16,5 C 15,6 C 12,2 C 98 % 1014,1 hPa 0,0 l/m 0 min 0 min 0 W/m 16,1 km/h (3 Bft) 100,00 %
12.10.2023 21:56 16,6 C 15,6 C 12,2 C 98 % 1014,0 hPa 0,0 l/m 0 min 0 min 0 W/m 16,1 km/h (3 Bft) 100,00 %
12.10.2023 21:58 16,6 C 15,6 C 12,2 C 98 % 1014,0 hPa 0,0 l/m 0 min 0 min 0 W/m 6,4 km/h (2 Bft) 100,00 %
12.10.2023 22:00 16,6 C 16,1 C 12,2 C 98 % 1014,0 hPa 0,0 l/m 0 min 0 min 0 W/m 16,1 km/h (3 Bft) 100,00 %
12.10.2023 22:02 16,6 C 16,1 C 12,2 C 98 % 1014,0 hPa 0,0 l/m 0 min 0 min 0 W/m 12,9 km/h (3 Bft) 100,00 %
12.10.2023 22:04 16,6 C 16,1 C 12,2 C 99 % 1014,1 hPa 0,0 l/m 0 min 0 min 0 W/m 12,9 km/h (3 Bft) 100,00 %
12.10.2023 22:06 16,6 C 16,1 C 12,2 C 98 % 1014,0 hPa 0,0 l/m 0 min 0 min 0 W/m 9,7 km/h (2 Bft) 97,87 %
12.10.2023 22:08 16,6 C 16,1 C 12,2 C 98 % 1014,1 hPa 0,0 l/m 0 min 0 min 0 W/m 16,1 km/h (3 Bft) 100,00 %
12.10.2023 22:10 16,7 C 16,1 C 12,2 C 98 % 1014,1 hPa 0,0 l/m 0 min 0 min 0 W/m 12,9 km/h (3 Bft) 97,87 %
12.10.2023 22:12 16,7 C 16,1 C 12,2 C 98 % 1014,2 hPa 0,0 l/m 0 min 0 min 0 W/m 19,3 km/h (3 Bft) 100,00 %
12.10.2023 22:14 16,7 C 16,1 C 12,2 C 98 % 1014,2 hPa 0,0 l/m 0 min 0 min 0 W/m 12,9 km/h (3 Bft) 100,00 %
12.10.2023 22:16 16,7 C 16,1 C 12,2 C 98 % 1014,1 hPa 0,0 l/m 0 min 0 min 0 W/m 12,9 km/h (3 Bft) 97,87 %
12.10.2023 22:18 16,7 C 16,1 C 12,2 C 98 % 1014,1 hPa 0,0 l/m 0 min 0 min 0 W/m 9,7 km/h (2 Bft) 95,74 %
12.10.2023 22:20 16,7 C 16,1 C 12,2 C 98 % 1014,1 hPa 0,0 l/m 0 min 0 min 0 W/m 16,1 km/h (3 Bft) 95,74 %
12.10.2023 22:22 16,7 C 16,1 C 12,2 C 98 % 1014,1 hPa 0,0 l/m 0 min 0 min 0 W/m 16,1 km/h (3 Bft) 97,87 %
12.10.2023 22:24 16,7 C 16,1 C 12,2 C 98 % 1014,2 hPa 0,0 l/m 0 min 0 min 0 W/m 12,9 km/h (3 Bft) 97,87 %
12.10.2023 22:26 16,7 C 16,1 C 12,2 C 98 % 1014,2 hPa 0,0 l/m 0 min 0 min 0 W/m 16,1 km/h (3 Bft) 97,87 %
12.10.2023 22:28 16,7 C 16,1 C 12,2 C 98 % 1014,2 hPa 0,0 l/m 0 min 0 min 0 W/m 12,9 km/h (3 Bft) 97,83 %
12.10.2023 22:30 16,8 C 16,1 C 12,2 C 98 % 1014,2 hPa 0,0 l/m 0 min 0 min 0 W/m 12,9 km/h (3 Bft) 97,87 %
12.10.2023 22:32 16,8 C 16,1 C 12,2 C 98 % 1014,2 hPa 0,0 l/m 0 min 0 min 0 W/m 16,1 km/h (3 Bft) 97,87 %
12.10.2023 22:34 16,8 C 16,1 C 12,2 C 98 % 1014,2 hPa 0,0 l/m 0 min 0 min 0 W/m 12,9 km/h (3 Bft) 97,87 %
12.10.2023 22:36 16,8 C 16,1 C 12,2 C 98 % 1014,1 hPa 0,0 l/m 0 min 0 min 0 W/m 19,3 km/h (3 Bft) 97,87 %
12.10.2023 22:38 16,8 C 16,1 C 12,2 C 98 % 1014,1 hPa 0,0 l/m 0 min 0 min 0 W/m 12,9 km/h (3 Bft) 95,74 %
12.10.2023 22:40 16,8 C 16,1 C 12,2 C 98 % 1014,1 hPa 0,0 l/m 0 min 0 min 0 W/m 12,9 km/h (3 Bft) 97,87 %
12.10.2023 22:42 16,8 C 16,1 C 12,2 C 98 % 1014,1 hPa 0,0 l/m 0 min 0 min 0 W/m 9,7 km/h (2 Bft) 97,87 %
12.10.2023 22:44 16,8 C 16,1 C 12,2 C 98 % 1014,1 hPa 0,0 l/m 0 min 0 min 0 W/m 12,9 km/h (3 Bft) 97,83 %
12.10.2023 22:46 16,8 C 16,1 C 12,2 C 98 % 1014,1 hPa 0,0 l/m 0 min 0 min 0 W/m 9,7 km/h (2 Bft) 97,87 %
12.10.2023 22:48 16,8 C 16,1 C 12,2 C 99 % 1014,0 hPa 0,0 l/m 0 min 0 min 0 W/m 16,1 km/h (3 Bft) 97,87 %
12.10.2023 22:50 16,8 C 16,1 C 12,2 C 99 % 1014,1 hPa 0,0 l/m 0 min 0 min 0 W/m 12,9 km/h (3 Bft) 97,87 %
12.10.2023 22:52 16,8 C 16,1 C 12,2 C 99 % 1014,1 hPa 0,0 l/m 0 min 0 min 0 W/m 12,9 km/h (3 Bft) 97,87 %
12.10.2023 22:54 16,8 C 16,1 C 12,2 C 99 % 1014,1 hPa 0,0 l/m 0 min 0 min 0 W/m 16,1 km/h (3 Bft) 93,62 %
12.10.2023 22:56 16,8 C 16,1 C 12,2 C 99 % 1014,1 hPa 0,0 l/m 0 min 0 min 0 W/m 12,9 km/h (3 Bft) 97,87 %
12.10.2023 22:58 16,8 C 16,1 C 12,2 C 99 % 1014,0 hPa 0,0 l/m 0 min 0 min 0 W/m 12,9 km/h (3 Bft) 97,87 %
12.10.2023 23:00 16,8 C 16,1 C 12,2 C 99 % 1014,1 hPa 0,0 l/m 0 min 0 min 0 W/m 12,9 km/h (3 Bft) 97,87 %
12.10.2023 23:02 16,8 C 16,1 C 12,2 C 99 % 1014,0 hPa 0,0 l/m 0 min 0 min 0 W/m 12,9 km/h (3 Bft) 100,00 %
12.10.2023 23:04 16,8 C 16,1 C 12,2 C 99 % 1014,0 hPa 0,0 l/m 0 min 0 min 0 W/m 9,7 km/h (2 Bft) 100,00 %
12.10.2023 23:08 16,9 C 16,1 C 12,2 C 99 % 1014,0 hPa 0,0 l/m 0 min 0 min 0 W/m 9,7 km/h (2 Bft) 100,00 %
12.10.2023 23:09 16,9 C 16,1 C 12,2 C 99 % 1014,0 hPa 0,0 l/m 0 min 0 min 0 W/m 6,4 km/h (2 Bft) 95,65 %
12.10.2023 23:12 16,9 C 16,1 C 12,2 C 99 % 1014,0 hPa 0,0 l/m 0 min 0 min 0 W/m 19,3 km/h (3 Bft) 100,00 %
12.10.2023 23:14 16,9 C 16,1 C 12,2 C 99 % 1014,0 hPa 0,0 l/m 0 min 0 min 0 W/m 12,9 km/h (3 Bft) 97,87 %
12.10.2023 23:16 16,9 C 16,1 C 12,2 C 99 % 1014,0 hPa 0,0 l/m 0 min 0 min 0 W/m 9,7 km/h (2 Bft) 97,87 %
12.10.2023 23:18 16,9 C 16,1 C 12,2 C 99 % 1014,0 hPa 0,0 l/m 0 min 0 min 0 W/m 16,1 km/h (3 Bft) 97,83 %
12.10.2023 23:20 16,9 C 16,1 C 12,2 C 99 % 1014,0 hPa 0,0 l/m 0 min 0 min 0 W/m 6,4 km/h (2 Bft) 97,87 %
12.10.2023 23:22 16,9 C 16,1 C 12,2 C 99 % 1014,0 hPa 0,0 l/m 0 min 0 min 0 W/m 12,9 km/h (3 Bft) 95,74 %
12.10.2023 23:24 16,9 C 16,1 C 12,2 C 99 % 1013,9 hPa 0,0 l/m 0 min 0 min 0 W/m 6,4 km/h (2 Bft) 97,87 %
12.10.2023 23:26 16,9 C 16,1 C 12,2 C 99 % 1014,0 hPa 0,0 l/m 0 min 0 min 0 W/m 12,9 km/h (3 Bft) 95,74 %
12.10.2023 23:28 16,9 C 16,1 C 12,2 C 99 % 1014,0 hPa 0,0 l/m 0 min 0 min 0 W/m 19,3 km/h (3 Bft) 97,87 %
12.10.2023 23:30 16,9 C 16,1 C 12,2 C 99 % 1014,0 hPa 0,0 l/m 0 min 0 min 0 W/m 12,9 km/h (3 Bft) 97,87 %
12.10.2023 23:32 16,9 C 16,1 C 12,2 C 98 % 1014,0 hPa 0,0 l/m 0 min 0 min 0 W/m 6,4 km/h (2 Bft) 97,87 %
12.10.2023 23:34 16,9 C 16,1 C 12,2 C 99 % 1014,0 hPa 0,0 l/m 0 min 0 min 0 W/m 12,9 km/h (3 Bft) 97,83 %
12.10.2023 23:36 16,9 C 16,1 C 12,2 C 99 % 1014,0 hPa 0,0 l/m 0 min 0 min 0 W/m 6,4 km/h (2 Bft) 95,74 %
12.10.2023 23:38 16,9 C 16,1 C 12,2 C 98 % 1013,9 hPa 0,0 l/m 0 min 0 min 0 W/m 9,7 km/h (2 Bft) 97,87 %
12.10.2023 23:40 16,9 C 16,1 C 12,2 C 98 % 1013,8 hPa 0,0 l/m 0 min 0 min 0 W/m 12,9 km/h (3 Bft) 97,87 %
12.10.2023 23:42 16,9 C 16,1 C 12,2 C 98 % 1013,8 hPa 0,0 l/m 0 min 0 min 0 W/m 6,4 km/h (2 Bft) 95,74 %
12.10.2023 23:44 16,9 C 16,1 C 12,2 C 98 % 1013,7 hPa 0,0 l/m 0 min 0 min 0 W/m 9,7 km/h (2 Bft) 95,74 %
12.10.2023 23:46 16,9 C 16,1 C 12,2 C 98 % 1013,7 hPa 0,0 l/m 0 min 0 min 0 W/m 9,7 km/h (2 Bft) 95,74 %
12.10.2023 23:48 16,9 C 16,1 C 12,2 C 98 % 1013,7 hPa 0,0 l/m 0 min 0 min 0 W/m 9,7 km/h (2 Bft) 95,65 %
12.10.2023 23:50 16,8 C 16,1 C 12,2 C 98 % 1013,7 hPa 0,0 l/m 0 min 0 min 0 W/m 16,1 km/h (3 Bft) 97,87 %
12.10.2023 23:52 16,9 C 16,1 C 12,2 C 98 % 1013,7 hPa 0,0 l/m 0 min 0 min 0 W/m 6,4 km/h (2 Bft) 97,87 %
12.10.2023 23:54 16,8 C 16,1 C 12,2 C 98 % 1013,7 hPa 0,0 l/m 0 min 0 min 0 W/m 9,7 km/h (2 Bft) 97,87 %
12.10.2023 23:56 16,9 C 16,1 C 12,2 C 98 % 1013,6 hPa 0,0 l/m 0 min 0 min 0 W/m 12,9 km/h (3 Bft) 97,92 %
12.10.2023 23:58 16,9 C 16,1 C 12,2 C 98 % 1013,6 hPa 0,0 l/m 0 min 0 min 0 W/m 9,7 km/h (2 Bft) 97,87 %
_ Min-Zeit 07:08 07:54 04:36 01:44 02:34 - - - - 06:28 10:56
Minimum _ 15,2 C 13,9 C 10,6 C 74 % 1011,9 hPa - - - - 0,0 km/h (0 Bft) 41,18 %
_ Max-Zeit 00:24 00:00 00:00 22:04 10:20 19:14 00:00 05:10 12:08 00:56 00:22
Maximum _ 19,9 C 18,9 C 15,0 C 99 % 1015,0 hPa 0,4 l/m 0 min 5 min 206 W/m 29,0 km/h
NW (5 Bft)
100,00 %
Durchschnitt _ 17,3 C 16,5 C 12,6 C 90 % 1013,8 hPa #3,6 l/m #0 min. #4:31 h 80 W/m 10,9 km/h (2 Bft) 97,30 %
© 2023 W. Hausmann